GEFSNE_prec_meanprecacc_192.txt.gz
Total_Precipitation_Accumulation
1.34 1.27 1.16 1.04 1.03 1.04 1.05 1.11 1.21 1.11 0.84 0.64 0.61 0.64 0.67 0.71 0.81 0.80 0.75 0.91 0.96 0.97 1.02 1.06 1.08 1.04 1.02 1.04 1.10 1.18 1.27 1.33 1.40 1.46 1.47 1.45 1.48 1.60
1.23 1.23 1.19 1.09 1.06 1.07 1.10 1.14 1.21 1.26 1.10 0.77 0.67 0.69 0.79 0.87 0.96 0.90 0.84 0.97 0.95 0.94 0.97 0.97 0.93 0.90 0.89 0.90 0.93 1.00 1.06 1.12 1.20 1.33 1.45 1.51 1.59 1.70
1.15 1.16 1.17 1.16 1.18 1.17 1.21 1.26 1.30 1.36 1.35 1.04 0.85 0.81 0.85 0.86 0.88 0.83 0.79 0.81 0.80 0.89 0.85 0.82 0.78 0.76 0.76 0.77 0.80 0.84 0.88 0.95 1.03 1.13 1.27 1.37 1.40 1.44
1.08 1.12 1.14 1.15 1.21 1.24 1.28 1.31 1.33 1.31 1.30 1.17 0.95 0.85 0.80 0.75 0.74 0.72 0.69 0.66 0.64 0.74 0.73 0.71 0.69 0.68 0.68 0.70 0.71 0.73 0.78 0.84 0.90 0.95 1.01 1.08 1.12 1.14
0.94 0.97 0.97 1.02 1.08 1.11 1.17 1.23 1.23 1.22 1.21 1.12 0.93 0.78 0.71 0.69 0.73 0.72 0.65 0.60 0.56 0.59 0.61 0.58 0.57 0.56 0.58 0.61 0.64 0.66 0.64 0.64 0.66 0.70 0.77 0.87 0.96 0.99
0.85 0.87 0.88 0.93 0.97 1.03 1.10 1.14 1.15 1.16 1.17 1.15 1.04 0.87 0.74 0.67 0.69 0.71 0.67 0.58 0.52 0.48 0.56 0.55 0.53 0.51 0.48 0.47 0.46 0.47 0.49 0.52 0.57 0.62 0.67 0.72 0.80 0.89
0.88 0.92 0.97 1.06 1.07 1.03 1.00 0.99 1.02 1.07 1.09 1.10 1.01 0.87 0.74 0.67 0.66 0.61 0.60 0.59 0.57 0.51 0.51 0.49 0.47 0.45 0.44 0.45 0.44 0.42 0.44 0.50 0.56 0.61 0.68 0.74 0.78 0.84
0.91 0.91 0.94 1.04 1.02 1.00 0.95 0.90 0.92 0.99 1.03 0.99 0.88 0.74 0.59 0.51 0.50 0.57 0.63 0.69 0.68 0.50 0.49 0.50 0.46 0.47 0.43 0.40 0.46 0.44 0.42 0.46 0.52 0.58 0.63 0.68 0.70 0.74
0.88 0.87 0.83 0.79 0.81 0.73 0.78 0.83 0.84 0.83 0.80 0.76 0.73 0.61 0.52 0.48 0.57 0.68 0.69 0.69 0.58 0.43 0.51 0.59 0.52 0.49 0.41 0.41 0.48 0.44 0.43 0.47 0.50 0.54 0.56 0.60 0.66 0.68
0.73 0.71 0.67 0.62 0.60 0.60 0.62 0.68 0.61 0.57 0.56 0.53 0.52 0.49 0.50 0.53 0.62 0.73 0.77 0.79 0.69 0.59 0.60 0.66 0.55 0.48 0.41 0.41 0.48 0.45 0.45 0.49 0.53 0.56 0.59 0.62 0.64 0.69
0.54 0.53 0.53 0.51 0.58 0.65 0.60 0.55 0.50 0.48 0.53 0.56 0.58 0.59 0.64 0.69 0.72 0.79 0.88 0.98 0.87 0.64 0.55 0.55 0.49 0.45 0.44 0.45 0.47 0.53 0.50 0.51 0.53 0.56 0.59 0.62 0.63 0.66
0.37 0.37 0.43 0.45 0.54 0.62 0.55 0.52 0.49 0.42 0.42 0.47 0.49 0.49 0.49 0.53 0.65 0.65 0.74 0.99 0.91 0.67 0.41 0.46 0.49 0.58 0.72 0.49 0.43 0.46 0.52 0.55 0.55 0.54 0.55 0.57 0.62 0.66
0.34 0.32 0.34 0.44 0.49 0.53 0.53 0.46 0.46 0.49 0.46 0.45 0.47 0.47 0.47 0.48 0.50 0.51 0.58 0.85 1.05 0.79 0.39 0.61 0.81 0.70 0.85 0.62 0.42 0.41 0.43 0.49 0.54 0.54 0.55 0.57 0.63 0.74
0.32 0.30 0.32 0.45 0.50 0.51 0.48 0.47 0.53 0.56 0.49 0.50 0.51 0.49 0.46 0.44 0.43 0.44 0.48 0.54 0.65 0.68 0.50 0.75 1.15 0.94 1.04 0.85 0.51 0.41 0.43 0.46 0.50 0.53 0.53 0.64 0.70 0.76
0.33 0.36 0.40 0.45 0.47 0.45 0.46 0.49 0.50 0.47 0.46 0.48 0.46 0.41 0.39 0.41 0.47 0.52 0.55 0.57 0.58 0.55 0.54 0.59 0.83 0.94 1.17 1.14 0.74 0.46 0.46 0.49 0.49 0.55 0.61 0.65 0.70 0.78
0.39 0.40 0.42 0.43 0.43 0.42 0.44 0.44 0.43 0.43 0.46 0.48 0.45 0.43 0.46 0.52 0.56 0.58 0.63 0.63 0.68 0.59 0.51 0.49 0.57 0.88 1.12 0.90 0.87 0.71 0.54 0.59 0.54 0.61 0.67 0.65 0.63 0.70
0.50 0.48 0.44 0.41 0.39 0.38 0.37 0.38 0.39 0.41 0.45 0.44 0.49 0.52 0.53 0.54 0.54 0.54 0.63 0.70 0.72 0.56 0.48 0.46 0.49 0.60 0.77 0.84 0.87 0.66 0.57 0.62 0.66 0.75 0.84 0.81 0.66 0.67
0.62 0.54 0.43 0.37 0.36 0.36 0.38 0.39 0.39 0.41 0.42 0.46 0.51 0.55 0.59 0.59 0.57 0.54 0.60 0.69 0.68 0.55 0.49 0.48 0.56 0.71 0.70 0.62 0.59 0.62 0.64 0.68 0.68 0.73 0.85 1.02 0.82 0.66
0.56 0.44 0.37 0.35 0.36 0.37 0.40 0.43 0.42 0.40 0.44 0.52 0.56 0.59 0.64 0.65 0.65 0.64 0.62 0.66 0.64 0.56 0.51 0.53 0.68 1.03 1.09 0.65 0.39 0.45 0.70 0.78 0.77 0.82 0.88 1.06 1.09 0.82
0.39 0.33 0.33 0.34 0.38 0.43 0.45 0.48 0.48 0.48 0.50 0.52 0.55 0.60 0.68 0.75 0.72 0.66 0.65 0.68 0.70 0.64 0.57 0.52 0.60 0.93 1.34 1.08 0.75 0.43 0.47 0.74 1.04 1.14 0.95 0.84 0.83 0.77
0.30 0.29 0.33 0.38 0.43 0.48 0.50 0.53 0.57 0.58 0.56 0.61 0.63 0.63 0.70 0.82 0.77 0.65 0.66 0.66 0.71 0.72 0.66 0.50 0.45 0.59 0.96 1.29 1.06 0.54 0.46 0.55 0.86 1.27 1.30 1.21 0.97 0.76
0.34 0.35 0.37 0.41 0.47 0.52 0.56 0.58 0.61 0.61 0.63 0.67 0.68 0.68 0.71 0.82 0.82 0.74 0.72 0.75 0.69 0.65 0.63 0.54 0.54 0.66 0.92 1.21 0.94 0.56 0.47 0.50 0.57 0.67 0.96 1.48 1.94 1.76
0.42 0.44 0.44 0.48 0.53 0.58 0.62 0.63 0.62 0.58 0.60 0.68 0.69 0.70 0.73 0.78 0.73 0.74 0.75 0.77 0.81 0.75 0.72 0.69 0.64 0.67 0.72 0.79 0.82 0.66 0.52 0.49 0.51 0.56 0.63 0.73 0.96 1.21

GEFSNE_prec_meanprecacc_198.txt.gz
Total_Precipitation_Accumulation
1.38 1.30 1.19 1.08 1.07 1.08 1.10 1.16 1.28 1.19 0.93 0.71 0.67 0.69 0.74 0.79 0.87 0.84 0.78 0.94 0.98 0.98 1.02 1.06 1.08 1.04 1.02 1.04 1.10 1.18 1.27 1.34 1.40 1.46 1.47 1.45 1.48 1.60
1.27 1.27 1.22 1.13 1.10 1.11 1.16 1.20 1.27 1.32 1.16 0.84 0.73 0.74 0.83 0.93 1.05 0.96 0.88 1.01 0.98 0.96 0.98 0.97 0.93 0.90 0.89 0.90 0.93 1.00 1.06 1.12 1.20 1.33 1.45 1.51 1.59 1.70
1.17 1.20 1.22 1.19 1.20 1.19 1.24 1.30 1.34 1.40 1.38 1.08 0.89 0.85 0.88 0.90 0.93 0.90 0.85 0.85 0.82 0.91 0.87 0.83 0.79 0.77 0.76 0.78 0.80 0.84 0.88 0.95 1.03 1.14 1.27 1.37 1.41 1.45
1.10 1.15 1.17 1.18 1.24 1.26 1.31 1.34 1.36 1.35 1.34 1.20 0.98 0.88 0.83 0.78 0.78 0.78 0.75 0.71 0.67 0.76 0.75 0.72 0.70 0.68 0.69 0.71 0.71 0.73 0.78 0.85 0.90 0.96 1.01 1.08 1.12 1.15
0.97 0.99 1.00 1.04 1.11 1.15 1.20 1.25 1.25 1.24 1.24 1.15 0.96 0.81 0.74 0.72 0.75 0.75 0.69 0.65 0.59 0.62 0.63 0.60 0.58 0.57 0.59 0.61 0.64 0.66 0.64 0.65 0.66 0.70 0.77 0.87 0.96 1.00
0.87 0.89 0.91 0.95 0.99 1.05 1.12 1.16 1.17 1.18 1.19 1.17 1.07 0.90 0.77 0.70 0.72 0.73 0.70 0.62 0.56 0.51 0.59 0.57 0.54 0.52 0.49 0.48 0.46 0.47 0.49 0.53 0.58 0.62 0.67 0.73 0.81 0.90
0.90 0.94 0.99 1.09 1.09 1.05 1.02 1.02 1.04 1.10 1.12 1.12 1.03 0.89 0.77 0.69 0.68 0.63 0.62 0.62 0.61 0.55 0.55 0.52 0.48 0.46 0.45 0.46 0.45 0.42 0.44 0.50 0.57 0.61 0.68 0.74 0.78 0.85
0.93 0.93 0.96 1.07 1.04 1.02 0.97 0.92 0.94 1.01 1.06 1.01 0.90 0.76 0.61 0.52 0.52 0.59 0.65 0.72 0.71 0.53 0.53 0.53 0.49 0.49 0.44 0.41 0.47 0.45 0.43 0.47 0.53 0.59 0.63 0.68 0.71 0.75
0.91 0.89 0.85 0.82 0.84 0.76 0.81 0.85 0.86 0.85 0.82 0.78 0.75 0.62 0.54 0.49 0.58 0.69 0.70 0.70 0.59 0.44 0.53 0.63 0.56 0.52 0.44 0.43 0.50 0.45 0.44 0.47 0.51 0.54 0.57 0.61 0.66 0.69
0.75 0.73 0.70 0.65 0.63 0.64 0.66 0.71 0.63 0.59 0.58 0.55 0.53 0.51 0.51 0.54 0.63 0.74 0.78 0.80 0.70 0.60 0.61 0.68 0.57 0.51 0.44 0.43 0.50 0.48 0.48 0.51 0.55 0.57 0.60 0.62 0.65 0.69
0.56 0.56 0.56 0.53 0.61 0.69 0.64 0.60 0.54 0.52 0.56 0.59 0.61 0.61 0.66 0.71 0.74 0.81 0.89 0.99 0.88 0.65 0.56 0.56 0.50 0.46 0.45 0.46 0.49 0.55 0.53 0.54 0.56 0.59 0.60 0.63 0.64 0.67
0.39 0.39 0.46 0.47 0.57 0.65 0.58 0.56 0.53 0.45 0.45 0.50 0.52 0.52 0.51 0.55 0.67 0.66 0.75 1.00 0.92 0.68 0.41 0.46 0.50 0.58 0.73 0.50 0.43 0.47 0.53 0.57 0.56 0.56 0.56 0.58 0.64 0.67
0.36 0.34 0.36 0.47 0.53 0.57 0.58 0.50 0.50 0.53 0.49 0.48 0.49 0.50 0.50 0.50 0.52 0.53 0.59 0.86 1.06 0.80 0.40 0.62 0.82 0.71 0.86 0.62 0.42 0.42 0.44 0.50 0.55 0.55 0.56 0.58 0.64 0.75
0.34 0.32 0.35 0.48 0.54 0.55 0.52 0.51 0.58 0.61 0.53 0.53 0.54 0.51 0.48 0.46 0.44 0.45 0.50 0.56 0.67 0.69 0.50 0.76 1.17 0.96 1.06 0.86 0.51 0.41 0.44 0.46 0.51 0.54 0.54 0.65 0.71 0.76
0.35 0.38 0.42 0.47 0.50 0.48 0.49 0.53 0.54 0.51 0.50 0.52 0.49 0.43 0.41 0.43 0.48 0.54 0.56 0.58 0.60 0.57 0.55 0.60 0.85 0.95 1.19 1.17 0.76 0.47 0.46 0.49 0.49 0.56 0.61 0.66 0.71 0.78
0.41 0.41 0.44 0.44 0.44 0.43 0.46 0.47 0.46 0.46 0.49 0.51 0.47 0.45 0.49 0.54 0.58 0.59 0.65 0.64 0.69 0.60 0.52 0.50 0.58 0.89 1.14 0.91 0.89 0.72 0.55 0.60 0.55 0.61 0.68 0.66 0.63 0.71
0.52 0.49 0.45 0.42 0.40 0.39 0.39 0.40 0.42 0.44 0.48 0.47 0.52 0.55 0.56 0.57 0.56 0.56 0.64 0.71 0.73 0.57 0.49 0.46 0.50 0.61 0.78 0.85 0.88 0.67 0.58 0.63 0.66 0.76 0.85 0.82 0.67 0.67
0.64 0.55 0.44 0.38 0.37 0.38 0.39 0.41 0.42 0.43 0.45 0.49 0.55 0.58 0.62 0.62 0.59 0.56 0.61 0.71 0.70 0.56 0.50 0.48 0.56 0.72 0.71 0.62 0.60 0.63 0.65 0.69 0.68 0.73 0.86 1.03 0.82 0.66
0.57 0.45 0.38 0.36 0.36 0.38 0.42 0.45 0.44 0.42 0.47 0.55 0.59 0.62 0.67 0.68 0.67 0.66 0.64 0.68 0.66 0.57 0.52 0.53 0.69 1.05 1.11 0.67 0.40 0.46 0.70 0.79 0.78 0.83 0.89 1.07 1.09 0.82
0.41 0.35 0.34 0.36 0.40 0.44 0.47 0.49 0.50 0.50 0.52 0.54 0.58 0.63 0.71 0.77 0.74 0.68 0.67 0.70 0.72 0.65 0.59 0.53 0.61 0.96 1.37 1.11 0.77 0.44 0.48 0.75 1.06 1.16 0.96 0.85 0.84 0.77
0.32 0.31 0.34 0.40 0.45 0.49 0.52 0.55 0.59 0.60 0.58 0.63 0.65 0.65 0.72 0.84 0.79 0.67 0.68 0.68 0.74 0.75 0.68 0.52 0.46 0.61 0.99 1.33 1.09 0.56 0.47 0.56 0.87 1.29 1.32 1.23 0.98 0.76
0.36 0.38 0.39 0.43 0.49 0.54 0.57 0.60 0.64 0.63 0.65 0.69 0.70 0.71 0.73 0.84 0.85 0.76 0.74 0.78 0.72 0.67 0.65 0.56 0.55 0.68 0.94 1.24 0.96 0.57 0.48 0.50 0.58 0.67 0.97 1.49 1.96 1.78
0.45 0.47 0.47 0.50 0.55 0.60 0.64 0.65 0.64 0.61 0.62 0.70 0.72 0.72 0.76 0.80 0.75 0.77 0.78 0.80 0.83 0.78 0.74 0.72 0.66 0.69 0.73 0.81 0.84 0.67 0.53 0.49 0.51 0.57 0.64 0.73 0.97 1.22

GEFSNE_prec_meanprecacc_204.txt.gz
Total_Precipitation_Accumulation
1.41 1.33 1.21 1.09 1.08 1.10 1.13 1.20 1.33 1.23 0.97 0.74 0.70 0.72 0.77 0.83 0.94 0.91 0.86 1.03 1.06 1.05 1.08 1.12 1.13 1.07 1.04 1.05 1.10 1.18 1.27 1.34 1.41 1.46 1.47 1.45 1.49 1.60
1.30 1.30 1.25 1.15 1.12 1.14 1.19 1.24 1.32 1.37 1.20 0.87 0.75 0.76 0.86 0.96 1.09 1.00 0.93 1.08 1.06 1.03 1.03 1.02 0.98 0.93 0.91 0.91 0.94 1.01 1.07 1.12 1.21 1.33 1.45 1.52 1.59 1.71
1.21 1.23 1.25 1.22 1.23 1.22 1.27 1.33 1.38 1.44 1.43 1.12 0.92 0.87 0.90 0.92 0.95 0.93 0.88 0.90 0.89 0.98 0.92 0.87 0.83 0.80 0.79 0.79 0.81 0.84 0.88 0.95 1.03 1.14 1.27 1.37 1.41 1.45
1.13 1.18 1.21 1.22 1.27 1.29 1.33 1.37 1.39 1.38 1.37 1.23 1.01 0.90 0.85 0.80 0.80 0.80 0.79 0.76 0.72 0.83 0.81 0.76 0.73 0.71 0.71 0.72 0.72 0.74 0.79 0.85 0.91 0.96 1.02 1.09 1.12 1.15
1.00 1.03 1.03 1.08 1.15 1.19 1.24 1.28 1.28 1.27 1.26 1.17 0.98 0.83 0.76 0.74 0.78 0.78 0.73 0.69 0.64 0.67 0.68 0.65 0.62 0.60 0.61 0.63 0.65 0.67 0.65 0.65 0.67 0.70 0.77 0.87 0.96 1.00
0.89 0.92 0.94 0.98 1.02 1.08 1.15 1.19 1.20 1.20 1.21 1.19 1.09 0.91 0.78 0.72 0.74 0.75 0.72 0.66 0.60 0.55 0.63 0.62 0.59 0.55 0.51 0.49 0.47 0.48 0.50 0.53 0.58 0.62 0.67 0.73 0.81 0.90
0.91 0.96 1.01 1.12 1.12 1.07 1.04 1.03 1.06 1.12 1.14 1.15 1.05 0.91 0.78 0.71 0.70 0.65 0.64 0.65 0.65 0.59 0.59 0.57 0.53 0.51 0.49 0.49 0.46 0.43 0.44 0.51 0.57 0.61 0.68 0.74 0.79 0.85
0.95 0.95 0.98 1.09 1.07 1.04 0.98 0.94 0.96 1.03 1.08 1.04 0.93 0.78 0.62 0.53 0.53 0.60 0.66 0.74 0.74 0.57 0.56 0.57 0.53 0.54 0.48 0.45 0.50 0.46 0.44 0.48 0.53 0.59 0.64 0.68 0.71 0.75
0.93 0.92 0.87 0.84 0.87 0.78 0.82 0.87 0.87 0.87 0.84 0.80 0.77 0.64 0.55 0.51 0.59 0.70 0.71 0.71 0.60 0.47 0.55 0.65 0.59 0.56 0.47 0.47 0.53 0.48 0.46 0.49 0.52 0.55 0.57 0.61 0.67 0.69
0.77 0.76 0.72 0.67 0.65 0.66 0.68 0.73 0.65 0.61 0.60 0.57 0.55 0.52 0.52 0.56 0.65 0.75 0.79 0.82 0.71 0.62 0.63 0.70 0.59 0.53 0.47 0.46 0.53 0.50 0.50 0.53 0.57 0.60 0.62 0.63 0.65 0.70
0.58 0.58 0.58 0.55 0.63 0.72 0.67 0.62 0.55 0.53 0.58 0.61 0.63 0.62 0.68 0.74 0.77 0.83 0.91 1.01 0.91 0.68 0.58 0.58 0.52 0.48 0.48 0.49 0.51 0.57 0.54 0.55 0.58 0.61 0.64 0.67 0.67 0.69
0.41 0.41 0.48 0.49 0.60 0.68 0.61 0.58 0.55 0.46 0.47 0.52 0.55 0.54 0.53 0.59 0.71 0.70 0.77 1.02 0.95 0.71 0.44 0.48 0.52 0.60 0.75 0.52 0.46 0.49 0.55 0.59 0.58 0.57 0.59 0.62 0.68 0.71
0.38 0.37 0.39 0.50 0.55 0.59 0.60 0.52 0.52 0.54 0.51 0.50 0.53 0.53 0.53 0.54 0.57 0.56 0.61 0.87 1.07 0.82 0.41 0.63 0.84 0.72 0.88 0.64 0.44 0.43 0.46 0.51 0.56 0.57 0.57 0.60 0.66 0.77
0.37 0.36 0.39 0.52 0.58 0.58 0.54 0.53 0.59 0.63 0.55 0.56 0.58 0.56 0.53 0.50 0.49 0.49 0.52 0.58 0.68 0.70 0.51 0.77 1.19 0.97 1.08 0.88 0.52 0.42 0.45 0.47 0.51 0.55 0.55 0.66 0.73 0.78
0.40 0.43 0.47 0.52 0.54 0.52 0.52 0.55 0.56 0.53 0.52 0.55 0.53 0.48 0.45 0.47 0.52 0.58 0.60 0.60 0.62 0.59 0.57 0.61 0.86 0.96 1.21 1.19 0.77 0.47 0.47 0.50 0.50 0.56 0.62 0.67 0.72 0.79
0.47 0.47 0.50 0.50 0.49 0.48 0.49 0.50 0.48 0.48 0.52 0.55 0.52 0.50 0.54 0.59 0.61 0.62 0.67 0.67 0.72 0.64 0.56 0.52 0.60 0.91 1.16 0.93 0.91 0.74 0.56 0.61 0.55 0.62 0.69 0.66 0.64 0.71
0.55 0.53 0.49 0.46 0.44 0.42 0.42 0.42 0.44 0.46 0.51 0.51 0.56 0.60 0.60 0.61 0.60 0.59 0.67 0.74 0.76 0.61 0.52 0.50 0.53 0.64 0.81 0.88 0.90 0.68 0.59 0.63 0.67 0.77 0.86 0.83 0.67 0.67
0.66 0.58 0.46 0.41 0.39 0.40 0.41 0.43 0.43 0.45 0.47 0.52 0.58 0.62 0.65 0.65 0.63 0.60 0.65 0.73 0.72 0.58 0.52 0.51 0.60 0.76 0.75 0.65 0.62 0.64 0.66 0.69 0.69 0.74 0.86 1.04 0.83 0.67
0.59 0.47 0.40 0.38 0.39 0.41 0.44 0.47 0.46 0.43 0.49 0.57 0.62 0.65 0.70 0.71 0.71 0.69 0.68 0.71 0.69 0.60 0.55 0.56 0.72 1.09 1.15 0.70 0.41 0.47 0.71 0.80 0.79 0.84 0.90 1.08 1.10 0.83
0.43 0.37 0.36 0.38 0.42 0.46 0.49 0.52 0.52 0.52 0.54 0.57 0.60 0.66 0.74 0.81 0.78 0.72 0.70 0.73 0.75 0.69 0.62 0.56 0.63 0.98 1.40 1.14 0.79 0.45 0.49 0.76 1.08 1.18 0.98 0.86 0.85 0.78
0.35 0.33 0.37 0.42 0.48 0.51 0.54 0.57 0.61 0.62 0.60 0.66 0.68 0.69 0.75 0.88 0.83 0.71 0.72 0.71 0.78 0.79 0.71 0.54 0.48 0.63 1.01 1.36 1.12 0.57 0.48 0.57 0.88 1.31 1.35 1.25 1.00 0.78
0.39 0.40 0.41 0.45 0.52 0.57 0.60 0.63 0.66 0.65 0.67 0.72 0.73 0.74 0.77 0.88 0.89 0.80 0.79 0.82 0.76 0.71 0.68 0.59 0.58 0.71 0.97 1.28 0.99 0.59 0.50 0.52 0.59 0.68 0.98 1.51 1.99 1.80
0.47 0.49 0.49 0.52 0.57 0.63 0.67 0.68 0.67 0.63 0.65 0.73 0.75 0.75 0.79 0.84 0.79 0.81 0.82 0.84 0.87 0.82 0.78 0.75 0.69 0.72 0.76 0.83 0.87 0.69 0.55 0.51 0.52 0.58 0.65 0.74 0.98 1.22

GEFSNE_prec_meanprecacc_210.txt.gz
Total_Precipitation_Accumulation
1.44 1.35 1.24 1.11 1.11 1.14 1.16 1.23 1.36 1.28 1.02 0.77 0.72 0.73 0.78 0.85 0.98 0.96 0.91 1.08 1.12 1.11 1.15 1.18 1.19 1.12 1.08 1.08 1.13 1.21 1.30 1.36 1.43 1.48 1.49 1.47 1.50 1.62
1.32 1.33 1.27 1.17 1.14 1.16 1.21 1.27 1.34 1.39 1.24 0.89 0.77 0.78 0.88 0.98 1.14 1.05 0.98 1.15 1.11 1.07 1.08 1.07 1.03 0.99 0.95 0.94 0.97 1.03 1.09 1.14 1.22 1.35 1.47 1.53 1.61 1.72
1.22 1.25 1.27 1.24 1.25 1.24 1.29 1.35 1.40 1.47 1.46 1.14 0.94 0.90 0.94 0.96 1.00 0.97 0.93 0.95 0.94 1.03 0.96 0.92 0.88 0.87 0.85 0.83 0.83 0.87 0.91 0.97 1.05 1.15 1.29 1.39 1.42 1.47
1.14 1.20 1.23 1.24 1.30 1.32 1.36 1.39 1.42 1.42 1.41 1.27 1.04 0.93 0.88 0.83 0.84 0.84 0.82 0.79 0.76 0.87 0.85 0.79 0.78 0.78 0.78 0.77 0.76 0.76 0.80 0.86 0.92 0.97 1.03 1.09 1.13 1.16
1.01 1.04 1.05 1.11 1.19 1.22 1.27 1.32 1.31 1.31 1.30 1.21 1.01 0.85 0.79 0.77 0.81 0.80 0.75 0.72 0.66 0.69 0.71 0.67 0.65 0.65 0.67 0.69 0.71 0.71 0.67 0.67 0.68 0.71 0.78 0.88 0.97 1.01
0.90 0.94 0.96 1.00 1.04 1.11 1.18 1.22 1.23 1.24 1.25 1.23 1.12 0.94 0.81 0.74 0.75 0.76 0.74 0.67 0.62 0.56 0.65 0.64 0.62 0.59 0.56 0.54 0.53 0.53 0.54 0.55 0.60 0.64 0.68 0.74 0.82 0.91
0.92 0.97 1.02 1.13 1.14 1.09 1.07 1.06 1.09 1.16 1.18 1.19 1.09 0.94 0.81 0.73 0.72 0.66 0.66 0.67 0.67 0.60 0.60 0.59 0.55 0.53 0.52 0.53 0.51 0.49 0.50 0.55 0.59 0.63 0.69 0.75 0.79 0.86
0.96 0.95 0.99 1.10 1.08 1.06 1.00 0.96 0.98 1.06 1.11 1.07 0.96 0.81 0.65 0.56 0.56 0.62 0.68 0.76 0.76 0.58 0.57 0.58 0.54 0.56 0.50 0.48 0.54 0.52 0.50 0.53 0.57 0.61 0.65 0.69 0.72 0.76
0.94 0.93 0.88 0.85 0.88 0.79 0.84 0.89 0.89 0.90 0.87 0.83 0.80 0.67 0.58 0.53 0.62 0.73 0.74 0.73 0.62 0.48 0.56 0.67 0.61 0.57 0.49 0.49 0.57 0.53 0.52 0.54 0.57 0.58 0.60 0.62 0.67 0.70
0.79 0.77 0.73 0.68 0.67 0.68 0.70 0.75 0.67 0.63 0.63 0.59 0.58 0.55 0.55 0.58 0.68 0.79 0.83 0.85 0.74 0.64 0.64 0.71 0.61 0.55 0.49 0.49 0.57 0.54 0.55 0.59 0.62 0.64 0.65 0.65 0.67 0.71
0.60 0.59 0.59 0.57 0.65 0.73 0.68 0.63 0.57 0.55 0.59 0.63 0.65 0.64 0.70 0.76 0.80 0.88 0.95 1.05 0.95 0.72 0.60 0.59 0.53 0.50 0.50 0.52 0.56 0.61 0.58 0.59 0.62 0.65 0.68 0.71 0.69 0.71
0.42 0.42 0.49 0.51 0.61 0.69 0.62 0.59 0.56 0.47 0.48 0.53 0.56 0.56 0.55 0.60 0.74 0.74 0.81 1.06 0.98 0.75 0.47 0.50 0.54 0.62 0.78 0.56 0.50 0.54 0.59 0.63 0.61 0.60 0.62 0.66 0.73 0.76
0.39 0.38 0.40 0.51 0.57 0.61 0.62 0.54 0.53 0.56 0.53 0.52 0.54 0.55 0.54 0.56 0.59 0.59 0.65 0.91 1.11 0.85 0.44 0.65 0.86 0.74 0.91 0.68 0.48 0.47 0.49 0.54 0.59 0.59 0.60 0.62 0.70 0.82
0.39 0.36 0.40 0.53 0.60 0.60 0.57 0.55 0.61 0.66 0.58 0.58 0.60 0.58 0.54 0.52 0.50 0.51 0.55 0.61 0.71 0.73 0.54 0.80 1.21 0.99 1.10 0.91 0.55 0.45 0.47 0.49 0.54 0.57 0.58 0.70 0.76 0.82
0.42 0.45 0.49 0.54 0.57 0.55 0.54 0.57 0.59 0.55 0.55 0.58 0.55 0.50 0.46 0.48 0.54 0.60 0.63 0.64 0.65 0.62 0.59 0.63 0.87 0.98 1.23 1.21 0.79 0.49 0.49 0.52 0.52 0.59 0.65 0.70 0.75 0.84
0.49 0.50 0.52 0.53 0.52 0.51 0.52 0.52 0.51 0.50 0.55 0.57 0.54 0.52 0.56 0.61 0.64 0.65 0.72 0.72 0.77 0.68 0.59 0.55 0.63 0.94 1.19 0.96 0.93 0.76 0.58 0.63 0.58 0.64 0.72 0.69 0.67 0.74
0.58 0.56 0.52 0.49 0.47 0.46 0.45 0.45 0.47 0.49 0.54 0.53 0.59 0.63 0.63 0.64 0.63 0.62 0.71 0.78 0.80 0.64 0.56 0.55 0.58 0.68 0.84 0.91 0.93 0.70 0.60 0.65 0.69 0.79 0.89 0.86 0.71 0.70
0.69 0.60 0.49 0.43 0.42 0.43 0.45 0.46 0.47 0.49 0.51 0.56 0.62 0.66 0.69 0.69 0.66 0.63 0.68 0.77 0.76 0.61 0.56 0.55 0.65 0.81 0.80 0.70 0.65 0.66 0.68 0.71 0.71 0.77 0.89 1.07 0.87 0.70
0.62 0.49 0.42 0.41 0.41 0.43 0.47 0.50 0.49 0.47 0.53 0.61 0.67 0.69 0.74 0.75 0.74 0.72 0.71 0.75 0.72 0.63 0.57 0.58 0.75 1.13 1.20 0.74 0.45 0.50 0.73 0.82 0.81 0.87 0.93 1.10 1.13 0.85
0.45 0.40 0.39 0.41 0.45 0.49 0.52 0.54 0.55 0.56 0.58 0.61 0.64 0.70 0.78 0.84 0.81 0.75 0.73 0.77 0.78 0.72 0.64 0.58 0.66 1.01 1.43 1.17 0.81 0.48 0.51 0.79 1.10 1.20 1.00 0.88 0.87 0.80
0.38 0.37 0.40 0.46 0.51 0.55 0.57 0.60 0.64 0.65 0.64 0.69 0.71 0.71 0.78 0.91 0.86 0.74 0.75 0.75 0.81 0.82 0.74 0.57 0.50 0.65 1.04 1.40 1.15 0.59 0.50 0.59 0.90 1.33 1.37 1.28 1.02 0.79
0.43 0.44 0.45 0.49 0.55 0.59 0.63 0.66 0.69 0.68 0.70 0.75 0.76 0.77 0.80 0.91 0.92 0.83 0.82 0.85 0.80 0.74 0.71 0.62 0.61 0.74 1.01 1.32 1.02 0.61 0.52 0.54 0.61 0.70 1.00 1.53 2.01 1.82
0.50 0.52 0.52 0.55 0.60 0.65 0.69 0.71 0.70 0.66 0.68 0.76 0.78 0.78 0.82 0.87 0.82 0.85 0.85 0.88 0.91 0.86 0.82 0.78 0.73 0.75 0.80 0.87 0.91 0.72 0.57 0.53 0.54 0.59 0.66 0.75 0.99 1.23

GEFSNE_prec_meanprecacc_216.txt.gz
Total_Precipitation_Accumulation
1.46 1.38 1.26 1.14 1.13 1.16 1.18 1.26 1.40 1.32 1.04 0.79 0.73 0.75 0.81 0.89 1.02 0.99 0.94 1.12 1.15 1.16 1.21 1.24 1.24 1.16 1.12 1.14 1.21 1.30 1.36 1.41 1.47 1.52 1.53 1.51 1.54 1.66
1.33 1.35 1.30 1.19 1.15 1.17 1.23 1.28 1.37 1.43 1.26 0.90 0.79 0.80 0.91 1.01 1.17 1.09 1.00 1.18 1.15 1.13 1.15 1.12 1.08 1.04 1.00 0.99 1.02 1.10 1.16 1.18 1.25 1.37 1.49 1.55 1.63 1.75
1.23 1.27 1.29 1.26 1.27 1.25 1.30 1.36 1.42 1.50 1.48 1.17 0.97 0.92 0.96 0.98 1.02 1.00 0.96 0.98 0.98 1.08 1.02 0.96 0.93 0.91 0.89 0.86 0.87 0.91 0.96 1.03 1.09 1.18 1.31 1.41 1.45 1.49
1.15 1.21 1.24 1.27 1.32 1.33 1.37 1.40 1.42 1.43 1.44 1.32 1.09 0.95 0.90 0.86 0.86 0.87 0.86 0.83 0.80 0.93 0.90 0.84 0.82 0.82 0.84 0.82 0.79 0.80 0.84 0.91 0.95 0.99 1.04 1.11 1.15 1.18
1.02 1.05 1.07 1.12 1.21 1.24 1.29 1.33 1.32 1.32 1.32 1.24 1.05 0.88 0.81 0.79 0.83 0.83 0.78 0.75 0.69 0.74 0.77 0.73 0.70 0.71 0.74 0.74 0.74 0.74 0.69 0.69 0.70 0.74 0.80 0.90 0.99 1.02
0.93 0.95 0.98 1.02 1.06 1.12 1.20 1.23 1.25 1.25 1.26 1.25 1.13 0.96 0.82 0.75 0.77 0.79 0.76 0.70 0.64 0.60 0.69 0.69 0.67 0.65 0.63 0.59 0.56 0.56 0.56 0.57 0.62 0.67 0.71 0.76 0.83 0.92
0.94 0.98 1.03 1.14 1.15 1.11 1.08 1.07 1.10 1.17 1.20 1.21 1.10 0.96 0.83 0.75 0.73 0.68 0.68 0.69 0.69 0.63 0.63 0.62 0.59 0.58 0.58 0.57 0.55 0.52 0.53 0.57 0.61 0.66 0.72 0.79 0.82 0.88
0.97 0.96 1.00 1.11 1.09 1.07 1.01 0.97 0.99 1.07 1.12 1.09 0.97 0.82 0.67 0.57 0.57 0.64 0.71 0.79 0.79 0.61 0.60 0.61 0.57 0.60 0.55 0.52 0.58 0.55 0.52 0.55 0.59 0.63 0.67 0.72 0.75 0.79
0.95 0.94 0.89 0.86 0.89 0.80 0.85 0.90 0.90 0.91 0.89 0.85 0.82 0.69 0.60 0.55 0.64 0.75 0.77 0.76 0.65 0.51 0.60 0.71 0.64 0.61 0.52 0.52 0.59 0.55 0.54 0.57 0.59 0.61 0.62 0.65 0.70 0.74
0.80 0.78 0.74 0.69 0.68 0.69 0.72 0.77 0.68 0.64 0.64 0.61 0.60 0.57 0.57 0.60 0.71 0.82 0.86 0.89 0.78 0.67 0.67 0.74 0.63 0.57 0.51 0.51 0.58 0.56 0.57 0.61 0.65 0.67 0.68 0.68 0.70 0.74
0.61 0.60 0.60 0.57 0.66 0.75 0.70 0.65 0.58 0.56 0.61 0.64 0.66 0.67 0.73 0.79 0.83 0.90 0.98 1.08 0.98 0.74 0.62 0.61 0.55 0.52 0.52 0.54 0.58 0.63 0.61 0.61 0.64 0.68 0.72 0.76 0.74 0.74
0.43 0.43 0.50 0.51 0.62 0.71 0.63 0.61 0.58 0.48 0.49 0.54 0.57 0.57 0.56 0.63 0.76 0.77 0.84 1.09 1.01 0.77 0.48 0.52 0.56 0.64 0.81 0.58 0.51 0.56 0.62 0.66 0.64 0.64 0.66 0.71 0.79 0.81
0.40 0.38 0.40 0.52 0.58 0.62 0.63 0.56 0.55 0.57 0.54 0.53 0.55 0.55 0.55 0.57 0.60 0.61 0.66 0.94 1.14 0.87 0.45 0.68 0.89 0.76 0.93 0.71 0.50 0.49 0.52 0.59 0.64 0.64 0.65 0.67 0.75 0.89
0.40 0.37 0.41 0.55 0.61 0.62 0.58 0.57 0.63 0.67 0.59 0.60 0.61 0.59 0.55 0.53 0.51 0.52 0.57 0.63 0.73 0.75 0.56 0.83 1.25 1.02 1.13 0.94 0.58 0.48 0.51 0.54 0.59 0.63 0.64 0.75 0.81 0.87
0.43 0.47 0.51 0.56 0.59 0.57 0.56 0.59 0.60 0.57 0.56 0.59 0.57 0.50 0.47 0.49 0.55 0.62 0.64 0.65 0.66 0.63 0.61 0.66 0.91 1.01 1.26 1.24 0.82 0.52 0.54 0.57 0.57 0.63 0.69 0.74 0.80 0.88
0.50 0.51 0.55 0.56 0.55 0.53 0.54 0.54 0.52 0.52 0.56 0.59 0.55 0.53 0.57 0.63 0.65 0.67 0.73 0.73 0.79 0.70 0.61 0.58 0.66 0.97 1.23 0.98 0.95 0.78 0.61 0.66 0.62 0.68 0.75 0.73 0.70 0.77
0.61 0.58 0.54 0.51 0.49 0.48 0.47 0.47 0.48 0.51 0.55 0.55 0.60 0.64 0.65 0.66 0.65 0.64 0.73 0.80 0.82 0.66 0.59 0.57 0.61 0.71 0.87 0.94 0.96 0.72 0.62 0.67 0.72 0.82 0.91 0.89 0.73 0.73
0.72 0.63 0.51 0.45 0.44 0.44 0.46 0.48 0.49 0.51 0.53 0.58 0.64 0.67 0.70 0.71 0.68 0.65 0.70 0.79 0.78 0.64 0.58 0.58 0.68 0.85 0.85 0.74 0.68 0.68 0.69 0.73 0.73 0.79 0.92 1.10 0.89 0.72
0.65 0.52 0.45 0.43 0.43 0.45 0.48 0.52 0.51 0.50 0.56 0.64 0.69 0.71 0.76 0.77 0.77 0.75 0.74 0.78 0.75 0.66 0.60 0.61 0.79 1.18 1.26 0.80 0.49 0.51 0.74 0.83 0.82 0.88 0.95 1.12 1.15 0.87
0.48 0.42 0.42 0.43 0.47 0.51 0.54 0.56 0.57 0.58 0.61 0.64 0.67 0.72 0.80 0.87 0.85 0.78 0.76 0.79 0.81 0.75 0.67 0.61 0.68 1.04 1.47 1.20 0.85 0.50 0.52 0.79 1.11 1.22 1.02 0.91 0.90 0.83
0.41 0.39 0.43 0.49 0.54 0.58 0.60 0.63 0.67 0.68 0.66 0.72 0.73 0.74 0.81 0.94 0.90 0.77 0.78 0.78 0.85 0.85 0.77 0.60 0.52 0.67 1.07 1.43 1.19 0.62 0.52 0.60 0.91 1.34 1.39 1.32 1.06 0.83
0.46 0.47 0.48 0.53 0.59 0.63 0.66 0.69 0.72 0.71 0.73 0.78 0.79 0.79 0.82 0.93 0.95 0.86 0.85 0.89 0.83 0.77 0.74 0.64 0.63 0.76 1.04 1.36 1.05 0.63 0.54 0.57 0.64 0.72 1.02 1.56 2.05 1.86
0.53 0.55 0.55 0.59 0.64 0.70 0.73 0.74 0.73 0.69 0.71 0.78 0.80 0.80 0.84 0.89 0.84 0.87 0.88 0.91 0.95 0.89 0.85 0.81 0.75 0.78 0.83 0.90 0.93 0.74 0.59 0.55 0.57 0.62 0.69 0.77 1.01 1.25

GEFSNE_prec_meanprecacc_222.txt.gz
Total_Precipitation_Accumulation
1.49 1.41 1.30 1.18 1.17 1.19 1.22 1.29 1.44 1.35 1.08 0.81 0.76 0.78 0.83 0.89 1.03 1.00 0.95 1.13 1.17 1.18 1.23 1.26 1.27 1.20 1.16 1.18 1.26 1.33 1.40 1.46 1.52 1.59 1.61 1.58 1.60 1.70
1.36 1.38 1.33 1.22 1.17 1.19 1.25 1.31 1.40 1.46 1.29 0.93 0.81 0.82 0.93 1.02 1.18 1.10 1.01 1.19 1.17 1.16 1.18 1.16 1.11 1.07 1.04 1.03 1.06 1.15 1.20 1.23 1.30 1.43 1.56 1.62 1.69 1.80
1.26 1.31 1.32 1.29 1.29 1.27 1.32 1.38 1.44 1.53 1.52 1.19 0.99 0.94 0.98 1.00 1.05 1.02 0.97 0.99 0.99 1.11 1.05 1.00 0.97 0.95 0.93 0.90 0.90 0.95 1.01 1.08 1.14 1.23 1.36 1.47 1.50 1.53
1.17 1.23 1.27 1.29 1.35 1.35 1.39 1.42 1.44 1.45 1.46 1.35 1.12 0.98 0.93 0.89 0.89 0.90 0.88 0.85 0.81 0.95 0.93 0.88 0.86 0.87 0.88 0.85 0.82 0.83 0.89 0.96 1.01 1.06 1.10 1.16 1.20 1.22
1.03 1.07 1.08 1.15 1.24 1.27 1.31 1.35 1.34 1.33 1.33 1.26 1.07 0.90 0.83 0.82 0.86 0.86 0.81 0.77 0.71 0.77 0.81 0.78 0.74 0.76 0.80 0.79 0.78 0.77 0.74 0.74 0.75 0.79 0.86 0.95 1.03 1.06
0.94 0.97 0.99 1.03 1.09 1.15 1.23 1.26 1.26 1.27 1.28 1.26 1.15 0.97 0.84 0.78 0.80 0.82 0.80 0.72 0.67 0.63 0.73 0.73 0.73 0.72 0.72 0.65 0.60 0.60 0.60 0.61 0.67 0.71 0.76 0.81 0.87 0.95
0.95 1.00 1.05 1.17 1.17 1.13 1.11 1.09 1.12 1.18 1.22 1.22 1.12 0.97 0.84 0.76 0.75 0.71 0.71 0.73 0.73 0.66 0.67 0.66 0.65 0.65 0.65 0.64 0.61 0.57 0.57 0.61 0.66 0.70 0.77 0.83 0.86 0.91
0.98 0.98 1.02 1.13 1.11 1.08 1.03 0.99 1.01 1.09 1.14 1.10 0.98 0.83 0.67 0.58 0.59 0.66 0.73 0.82 0.83 0.65 0.63 0.65 0.63 0.67 0.61 0.58 0.63 0.60 0.56 0.59 0.63 0.67 0.71 0.76 0.79 0.83
0.96 0.95 0.90 0.87 0.91 0.81 0.86 0.91 0.92 0.92 0.90 0.86 0.83 0.70 0.60 0.56 0.65 0.77 0.79 0.79 0.69 0.55 0.63 0.76 0.70 0.68 0.59 0.58 0.65 0.60 0.58 0.60 0.63 0.64 0.65 0.68 0.73 0.77
0.82 0.80 0.76 0.71 0.69 0.71 0.73 0.78 0.70 0.65 0.65 0.62 0.61 0.58 0.58 0.62 0.73 0.84 0.89 0.92 0.82 0.72 0.71 0.79 0.69 0.64 0.57 0.56 0.63 0.60 0.60 0.63 0.67 0.69 0.70 0.70 0.72 0.76
0.63 0.62 0.62 0.59 0.68 0.77 0.72 0.67 0.60 0.57 0.62 0.65 0.67 0.68 0.74 0.81 0.85 0.92 1.01 1.11 1.02 0.77 0.65 0.65 0.59 0.56 0.56 0.57 0.61 0.66 0.63 0.63 0.66 0.70 0.74 0.77 0.76 0.77
0.44 0.44 0.51 0.53 0.64 0.73 0.65 0.63 0.59 0.50 0.49 0.55 0.58 0.58 0.57 0.64 0.77 0.78 0.86 1.12 1.03 0.79 0.50 0.54 0.58 0.66 0.83 0.60 0.53 0.58 0.63 0.67 0.65 0.65 0.68 0.73 0.81 0.84
0.41 0.39 0.41 0.53 0.59 0.63 0.64 0.57 0.56 0.58 0.55 0.54 0.56 0.56 0.56 0.58 0.61 0.61 0.67 0.95 1.15 0.89 0.46 0.69 0.91 0.78 0.95 0.72 0.51 0.51 0.53 0.60 0.65 0.66 0.67 0.69 0.77 0.92
0.41 0.38 0.41 0.56 0.62 0.62 0.59 0.57 0.64 0.68 0.60 0.61 0.62 0.60 0.56 0.54 0.52 0.53 0.57 0.63 0.74 0.76 0.57 0.84 1.27 1.04 1.15 0.95 0.59 0.49 0.52 0.55 0.61 0.65 0.66 0.78 0.84 0.90
0.44 0.47 0.52 0.57 0.60 0.57 0.57 0.60 0.61 0.58 0.57 0.60 0.58 0.51 0.48 0.50 0.56 0.62 0.65 0.66 0.67 0.65 0.63 0.67 0.92 1.02 1.28 1.26 0.83 0.54 0.55 0.59 0.59 0.66 0.74 0.79 0.84 0.93
0.51 0.52 0.55 0.57 0.57 0.55 0.55 0.55 0.53 0.53 0.57 0.60 0.56 0.54 0.58 0.64 0.67 0.68 0.75 0.75 0.80 0.72 0.63 0.59 0.67 0.98 1.24 1.00 0.97 0.80 0.63 0.69 0.65 0.72 0.80 0.78 0.75 0.81
0.62 0.59 0.55 0.52 0.51 0.50 0.49 0.48 0.50 0.53 0.57 0.56 0.62 0.66 0.66 0.67 0.66 0.66 0.74 0.81 0.84 0.68 0.60 0.59 0.62 0.73 0.89 0.96 0.98 0.75 0.65 0.70 0.75 0.85 0.96 0.94 0.78 0.77
0.74 0.64 0.53 0.47 0.45 0.45 0.47 0.49 0.51 0.53 0.54 0.60 0.66 0.70 0.73 0.73 0.71 0.67 0.72 0.82 0.80 0.66 0.60 0.60 0.70 0.88 0.87 0.77 0.70 0.70 0.72 0.76 0.76 0.82 0.95 1.13 0.93 0.75
0.67 0.54 0.46 0.45 0.45 0.46 0.50 0.53 0.53 0.52 0.58 0.66 0.72 0.75 0.79 0.80 0.80 0.78 0.76 0.80 0.77 0.68 0.62 0.63 0.81 1.21 1.30 0.83 0.51 0.53 0.77 0.86 0.85 0.91 0.97 1.14 1.18 0.90
0.49 0.44 0.44 0.45 0.49 0.53 0.56 0.58 0.59 0.60 0.64 0.67 0.70 0.76 0.84 0.91 0.88 0.81 0.78 0.82 0.83 0.77 0.69 0.63 0.70 1.06 1.50 1.24 0.89 0.53 0.55 0.82 1.14 1.24 1.04 0.93 0.92 0.86
0.42 0.41 0.45 0.51 0.56 0.60 0.62 0.65 0.70 0.71 0.69 0.75 0.76 0.77 0.84 0.97 0.93 0.80 0.80 0.80 0.87 0.88 0.80 0.62 0.54 0.70 1.11 1.49 1.24 0.66 0.55 0.63 0.93 1.37 1.42 1.35 1.09 0.86
0.48 0.49 0.50 0.55 0.61 0.65 0.68 0.72 0.75 0.75 0.77 0.81 0.82 0.82 0.85 0.96 0.98 0.89 0.88 0.92 0.86 0.80 0.77 0.67 0.66 0.80 1.09 1.41 1.09 0.65 0.57 0.60 0.67 0.74 1.04 1.59 2.08 1.88
0.56 0.58 0.58 0.61 0.67 0.72 0.76 0.77 0.76 0.73 0.75 0.82 0.83 0.83 0.87 0.92 0.87 0.90 0.91 0.94 0.98 0.92 0.88 0.85 0.79 0.82 0.87 0.94 0.97 0.77 0.62 0.58 0.60 0.65 0.71 0.79 1.02 1.26

GEFSNE_prec_meanprecacc_228.txt.gz
Total_Precipitation_Accumulation
1.54 1.45 1.35 1.23 1.21 1.24 1.26 1.33 1.48 1.40 1.12 0.85 0.79 0.83 0.89 0.93 1.05 1.02 0.96 1.15 1.18 1.19 1.23 1.26 1.27 1.21 1.17 1.20 1.28 1.36 1.43 1.49 1.56 1.62 1.64 1.62 1.66 1.77
1.42 1.43 1.38 1.28 1.23 1.24 1.29 1.35 1.44 1.50 1.34 0.97 0.84 0.85 0.98 1.07 1.22 1.11 1.02 1.21 1.18 1.17 1.19 1.16 1.12 1.08 1.05 1.05 1.08 1.17 1.23 1.26 1.33 1.46 1.59 1.66 1.74 1.87
1.33 1.36 1.38 1.34 1.34 1.32 1.36 1.41 1.48 1.56 1.55 1.23 1.01 0.96 1.01 1.05 1.09 1.04 0.99 1.01 1.01 1.12 1.06 1.01 0.98 0.96 0.94 0.91 0.92 0.96 1.04 1.11 1.17 1.27 1.40 1.52 1.57 1.61
1.25 1.30 1.33 1.34 1.38 1.39 1.43 1.45 1.46 1.47 1.48 1.37 1.13 1.00 0.95 0.92 0.93 0.93 0.90 0.86 0.83 0.97 0.95 0.90 0.87 0.88 0.89 0.86 0.83 0.84 0.91 0.99 1.04 1.09 1.14 1.21 1.27 1.32
1.08 1.13 1.14 1.21 1.27 1.30 1.35 1.38 1.36 1.35 1.34 1.27 1.08 0.92 0.86 0.85 0.91 0.90 0.85 0.79 0.73 0.79 0.84 0.82 0.77 0.78 0.82 0.81 0.79 0.78 0.75 0.75 0.78 0.82 0.90 1.00 1.09 1.15
0.96 1.00 1.03 1.08 1.13 1.18 1.26 1.30 1.29 1.29 1.29 1.28 1.17 1.00 0.87 0.81 0.83 0.85 0.83 0.76 0.69 0.65 0.77 0.77 0.76 0.76 0.75 0.69 0.63 0.62 0.62 0.64 0.70 0.76 0.82 0.87 0.93 1.01
0.97 1.01 1.07 1.19 1.20 1.15 1.14 1.13 1.15 1.21 1.24 1.24 1.14 1.00 0.87 0.80 0.79 0.74 0.74 0.76 0.76 0.69 0.71 0.72 0.69 0.69 0.71 0.71 0.68 0.62 0.61 0.65 0.70 0.75 0.82 0.89 0.92 0.96
1.00 0.99 1.03 1.15 1.13 1.11 1.06 1.02 1.05 1.13 1.17 1.12 1.00 0.86 0.70 0.61 0.63 0.70 0.76 0.85 0.87 0.68 0.68 0.72 0.68 0.71 0.69 0.68 0.73 0.67 0.64 0.67 0.70 0.74 0.77 0.81 0.84 0.88
0.97 0.96 0.91 0.88 0.92 0.82 0.87 0.93 0.94 0.95 0.92 0.88 0.85 0.72 0.62 0.58 0.68 0.81 0.82 0.81 0.72 0.59 0.67 0.81 0.76 0.73 0.65 0.67 0.75 0.70 0.69 0.71 0.72 0.71 0.71 0.73 0.78 0.81
0.82 0.81 0.76 0.71 0.70 0.72 0.74 0.79 0.71 0.66 0.67 0.63 0.62 0.59 0.59 0.63 0.74 0.86 0.91 0.94 0.84 0.74 0.74 0.85 0.75 0.70 0.63 0.63 0.71 0.68 0.68 0.71 0.74 0.75 0.75 0.75 0.76 0.79
0.64 0.63 0.63 0.61 0.69 0.79 0.73 0.68 0.61 0.58 0.63 0.66 0.68 0.68 0.75 0.82 0.86 0.94 1.03 1.13 1.04 0.79 0.67 0.68 0.64 0.61 0.61 0.62 0.65 0.71 0.68 0.68 0.70 0.74 0.77 0.80 0.79 0.79
0.45 0.46 0.53 0.55 0.67 0.75 0.68 0.66 0.62 0.52 0.51 0.56 0.59 0.59 0.58 0.64 0.78 0.79 0.87 1.13 1.05 0.80 0.51 0.56 0.60 0.69 0.87 0.64 0.57 0.61 0.66 0.70 0.68 0.68 0.70 0.75 0.83 0.85
0.43 0.41 0.43 0.55 0.61 0.66 0.68 0.60 0.59 0.61 0.57 0.55 0.57 0.57 0.57 0.58 0.61 0.62 0.68 0.97 1.17 0.91 0.47 0.70 0.92 0.80 0.97 0.74 0.54 0.53 0.55 0.62 0.67 0.68 0.68 0.70 0.78 0.93
0.43 0.40 0.43 0.57 0.64 0.64 0.62 0.60 0.67 0.71 0.62 0.63 0.64 0.61 0.57 0.55 0.53 0.53 0.58 0.64 0.75 0.78 0.59 0.86 1.28 1.05 1.17 0.97 0.61 0.50 0.53 0.56 0.62 0.66 0.67 0.79 0.85 0.91
0.45 0.48 0.53 0.59 0.61 0.59 0.59 0.62 0.63 0.59 0.59 0.61 0.58 0.52 0.49 0.51 0.57 0.64 0.67 0.67 0.68 0.66 0.64 0.68 0.93 1.04 1.29 1.28 0.84 0.55 0.56 0.60 0.60 0.67 0.74 0.79 0.85 0.94
0.53 0.53 0.56 0.57 0.57 0.55 0.56 0.56 0.54 0.53 0.58 0.60 0.57 0.55 0.59 0.65 0.68 0.69 0.76 0.76 0.82 0.73 0.64 0.60 0.68 0.99 1.26 1.01 0.98 0.81 0.64 0.70 0.66 0.72 0.80 0.78 0.75 0.82
0.64 0.61 0.57 0.53 0.51 0.50 0.49 0.49 0.50 0.53 0.58 0.57 0.63 0.67 0.67 0.68 0.68 0.67 0.76 0.83 0.86 0.69 0.61 0.60 0.63 0.74 0.90 0.97 0.99 0.75 0.66 0.71 0.76 0.86 0.97 0.95 0.79 0.78
0.76 0.66 0.54 0.48 0.46 0.46 0.48 0.50 0.51 0.53 0.55 0.61 0.67 0.71 0.74 0.75 0.72 0.69 0.75 0.84 0.83 0.67 0.61 0.61 0.72 0.90 0.90 0.78 0.71 0.71 0.73 0.77 0.77 0.83 0.96 1.15 0.94 0.76
0.69 0.55 0.48 0.46 0.45 0.47 0.50 0.54 0.54 0.52 0.58 0.67 0.73 0.76 0.81 0.83 0.82 0.81 0.79 0.83 0.80 0.70 0.64 0.65 0.83 1.24 1.34 0.85 0.52 0.54 0.78 0.87 0.86 0.92 0.98 1.15 1.19 0.91
0.50 0.45 0.45 0.46 0.50 0.54 0.57 0.59 0.60 0.61 0.65 0.68 0.71 0.77 0.86 0.93 0.91 0.83 0.81 0.84 0.86 0.79 0.72 0.66 0.73 1.09 1.54 1.27 0.91 0.55 0.56 0.83 1.15 1.26 1.05 0.94 0.94 0.87
0.43 0.42 0.46 0.52 0.57 0.61 0.63 0.66 0.71 0.72 0.71 0.76 0.78 0.79 0.86 1.00 0.96 0.82 0.83 0.83 0.90 0.91 0.83 0.64 0.56 0.72 1.14 1.53 1.28 0.69 0.57 0.64 0.95 1.39 1.44 1.37 1.12 0.88
0.50 0.51 0.51 0.56 0.62 0.67 0.70 0.73 0.77 0.76 0.78 0.83 0.83 0.84 0.87 0.99 1.01 0.91 0.90 0.95 0.89 0.83 0.79 0.70 0.69 0.83 1.13 1.45 1.13 0.68 0.59 0.62 0.69 0.77 1.06 1.61 2.12 1.91
0.59 0.60 0.60 0.63 0.68 0.74 0.77 0.78 0.78 0.74 0.76 0.83 0.85 0.85 0.89 0.94 0.90 0.93 0.94 0.97 1.01 0.96 0.92 0.89 0.82 0.85 0.90 0.97 1.00 0.80 0.64 0.61 0.63 0.68 0.74 0.82 1.04 1.28

GEFSNE_prec_meanprecacc_234.txt.gz
Total_Precipitation_Accumulation
1.57 1.48 1.37 1.25 1.23 1.26 1.29 1.38 1.53 1.46 1.18 0.90 0.84 0.88 0.94 0.97 1.09 1.04 0.98 1.17 1.21 1.21 1.25 1.29 1.30 1.23 1.19 1.21 1.29 1.38 1.46 1.53 1.59 1.65 1.67 1.64 1.68 1.79
1.46 1.47 1.42 1.31 1.25 1.27 1.32 1.39 1.48 1.54 1.39 1.01 0.87 0.89 1.02 1.11 1.25 1.14 1.04 1.23 1.21 1.19 1.21 1.18 1.14 1.10 1.06 1.06 1.09 1.19 1.25 1.27 1.35 1.48 1.62 1.70 1.78 1.90
1.38 1.41 1.42 1.39 1.38 1.36 1.39 1.45 1.52 1.60 1.59 1.26 1.05 1.00 1.05 1.09 1.12 1.07 1.02 1.03 1.03 1.15 1.09 1.03 1.00 0.97 0.95 0.91 0.93 0.97 1.05 1.12 1.19 1.29 1.43 1.55 1.61 1.65
1.29 1.34 1.38 1.39 1.43 1.45 1.48 1.50 1.50 1.51 1.52 1.41 1.17 1.03 0.98 0.95 0.96 0.96 0.93 0.88 0.85 0.99 0.98 0.93 0.90 0.90 0.91 0.88 0.85 0.86 0.91 0.99 1.05 1.10 1.16 1.23 1.30 1.35
1.12 1.18 1.20 1.26 1.32 1.35 1.40 1.44 1.41 1.39 1.38 1.31 1.12 0.95 0.88 0.88 0.93 0.93 0.87 0.81 0.74 0.81 0.86 0.84 0.80 0.81 0.85 0.82 0.81 0.80 0.76 0.76 0.79 0.84 0.91 1.01 1.11 1.17
1.00 1.05 1.09 1.13 1.17 1.23 1.31 1.35 1.34 1.33 1.33 1.31 1.20 1.02 0.89 0.82 0.85 0.88 0.86 0.78 0.71 0.67 0.79 0.80 0.80 0.78 0.77 0.70 0.65 0.64 0.63 0.65 0.71 0.78 0.84 0.90 0.96 1.04
1.00 1.04 1.11 1.24 1.26 1.21 1.19 1.18 1.19 1.25 1.28 1.28 1.17 1.03 0.89 0.81 0.81 0.76 0.77 0.79 0.78 0.71 0.73 0.74 0.73 0.73 0.74 0.74 0.71 0.64 0.64 0.68 0.73 0.79 0.87 0.94 0.97 1.02
1.02 1.01 1.05 1.17 1.16 1.15 1.11 1.08 1.10 1.18 1.22 1.17 1.05 0.89 0.73 0.63 0.65 0.72 0.79 0.88 0.90 0.71 0.71 0.76 0.73 0.76 0.73 0.71 0.76 0.72 0.70 0.74 0.77 0.80 0.83 0.86 0.90 0.95
0.99 0.97 0.93 0.89 0.94 0.83 0.90 0.98 1.00 1.00 0.96 0.92 0.90 0.76 0.66 0.61 0.70 0.83 0.85 0.84 0.75 0.62 0.70 0.84 0.80 0.77 0.70 0.72 0.79 0.74 0.74 0.77 0.79 0.77 0.77 0.79 0.83 0.87
0.83 0.82 0.77 0.72 0.71 0.73 0.75 0.81 0.74 0.70 0.70 0.66 0.65 0.63 0.62 0.66 0.76 0.87 0.93 0.97 0.87 0.78 0.78 0.88 0.79 0.74 0.66 0.66 0.76 0.73 0.73 0.76 0.79 0.80 0.80 0.80 0.81 0.85
0.65 0.64 0.64 0.61 0.70 0.80 0.74 0.70 0.64 0.61 0.65 0.69 0.71 0.72 0.78 0.85 0.88 0.96 1.05 1.17 1.07 0.83 0.71 0.72 0.67 0.64 0.64 0.65 0.69 0.75 0.72 0.72 0.75 0.79 0.82 0.85 0.83 0.84
0.47 0.47 0.54 0.56 0.68 0.77 0.69 0.67 0.64 0.53 0.52 0.57 0.61 0.61 0.61 0.67 0.81 0.81 0.90 1.16 1.08 0.83 0.55 0.59 0.64 0.72 0.90 0.68 0.60 0.64 0.69 0.74 0.72 0.72 0.74 0.80 0.88 0.90
0.45 0.43 0.44 0.57 0.63 0.68 0.69 0.61 0.61 0.62 0.58 0.57 0.59 0.59 0.58 0.60 0.63 0.64 0.70 0.99 1.20 0.93 0.50 0.72 0.95 0.83 1.01 0.77 0.56 0.55 0.58 0.65 0.70 0.71 0.71 0.73 0.81 0.96
0.45 0.42 0.45 0.60 0.66 0.66 0.63 0.62 0.69 0.73 0.65 0.65 0.66 0.63 0.59 0.56 0.53 0.54 0.59 0.66 0.76 0.79 0.60 0.87 1.30 1.08 1.19 1.00 0.63 0.52 0.55 0.59 0.64 0.69 0.70 0.81 0.88 0.93
0.47 0.51 0.55 0.60 0.63 0.60 0.60 0.63 0.65 0.61 0.61 0.64 0.62 0.55 0.51 0.53 0.59 0.65 0.67 0.68 0.69 0.67 0.65 0.69 0.95 1.06 1.32 1.30 0.86 0.56 0.57 0.61 0.61 0.69 0.76 0.81 0.87 0.96
0.56 0.56 0.59 0.59 0.59 0.57 0.57 0.58 0.56 0.55 0.60 0.62 0.58 0.57 0.61 0.67 0.70 0.72 0.78 0.78 0.83 0.74 0.65 0.61 0.69 1.01 1.28 1.03 1.00 0.82 0.65 0.71 0.67 0.74 0.82 0.80 0.76 0.83
0.67 0.65 0.60 0.55 0.53 0.52 0.51 0.50 0.52 0.55 0.59 0.59 0.64 0.68 0.69 0.70 0.70 0.69 0.78 0.85 0.88 0.71 0.63 0.61 0.65 0.76 0.92 0.99 1.01 0.77 0.67 0.72 0.77 0.87 0.98 0.96 0.80 0.79
0.79 0.70 0.57 0.51 0.48 0.48 0.50 0.51 0.53 0.55 0.57 0.62 0.69 0.73 0.76 0.76 0.74 0.71 0.76 0.86 0.85 0.69 0.63 0.62 0.74 0.93 0.92 0.80 0.72 0.72 0.74 0.78 0.78 0.84 0.98 1.16 0.96 0.77
0.72 0.58 0.50 0.48 0.48 0.49 0.52 0.55 0.55 0.53 0.59 0.68 0.74 0.77 0.83 0.84 0.84 0.83 0.81 0.85 0.82 0.72 0.65 0.66 0.85 1.27 1.37 0.87 0.54 0.55 0.79 0.88 0.88 0.94 0.99 1.17 1.20 0.92
0.52 0.47 0.46 0.48 0.51 0.55 0.58 0.61 0.62 0.63 0.66 0.69 0.73 0.79 0.87 0.95 0.92 0.85 0.82 0.86 0.88 0.81 0.74 0.67 0.75 1.11 1.57 1.30 0.93 0.56 0.57 0.84 1.17 1.27 1.06 0.95 0.95 0.88
0.44 0.43 0.47 0.53 0.58 0.62 0.65 0.68 0.72 0.74 0.72 0.78 0.80 0.80 0.88 1.02 0.98 0.84 0.85 0.85 0.92 0.92 0.84 0.65 0.57 0.73 1.16 1.56 1.31 0.71 0.58 0.66 0.96 1.40 1.46 1.39 1.14 0.90
0.52 0.52 0.53 0.57 0.64 0.68 0.72 0.75 0.79 0.78 0.80 0.85 0.85 0.85 0.89 1.01 1.03 0.93 0.92 0.96 0.90 0.84 0.81 0.71 0.70 0.85 1.16 1.49 1.16 0.69 0.60 0.63 0.70 0.78 1.08 1.63 2.14 1.94
0.61 0.62 0.62 0.65 0.70 0.75 0.79 0.80 0.80 0.76 0.78 0.85 0.87 0.87 0.91 0.96 0.91 0.94 0.96 0.99 1.03 0.98 0.94 0.91 0.85 0.88 0.93 1.00 1.03 0.82 0.65 0.62 0.64 0.69 0.76 0.83 1.05 1.29

GEFSNE_prec_meanprecacc_240.txt.gz
Total_Precipitation_Accumulation
1.59 1.50 1.39 1.27 1.26 1.28 1.31 1.39 1.55 1.49 1.20 0.92 0.87 0.91 0.97 1.02 1.14 1.09 1.03 1.24 1.26 1.25 1.29 1.31 1.33 1.27 1.27 1.33 1.36 1.42 1.50 1.57 1.63 1.69 1.70 1.67 1.70 1.82
1.48 1.49 1.43 1.32 1.27 1.28 1.34 1.40 1.49 1.56 1.41 1.03 0.90 0.92 1.05 1.14 1.30 1.19 1.09 1.29 1.27 1.24 1.24 1.21 1.16 1.14 1.11 1.14 1.20 1.26 1.28 1.30 1.39 1.51 1.65 1.72 1.80 1.92
1.41 1.43 1.44 1.41 1.39 1.37 1.41 1.47 1.54 1.62 1.61 1.28 1.06 1.03 1.09 1.12 1.15 1.11 1.06 1.08 1.08 1.19 1.12 1.06 1.02 1.00 0.99 0.97 0.99 1.06 1.12 1.16 1.22 1.31 1.45 1.57 1.62 1.67
1.32 1.37 1.40 1.41 1.46 1.47 1.50 1.52 1.53 1.53 1.53 1.42 1.18 1.05 1.01 0.98 0.99 0.99 0.96 0.92 0.89 1.03 1.02 0.95 0.92 0.92 0.94 0.91 0.89 0.91 0.98 1.05 1.09 1.13 1.17 1.24 1.30 1.36
1.15 1.22 1.24 1.29 1.34 1.38 1.43 1.46 1.44 1.42 1.40 1.33 1.13 0.96 0.90 0.90 0.96 0.96 0.90 0.84 0.77 0.85 0.90 0.88 0.83 0.84 0.88 0.85 0.84 0.83 0.81 0.82 0.85 0.88 0.94 1.03 1.12 1.19
1.03 1.09 1.13 1.16 1.20 1.25 1.34 1.37 1.36 1.36 1.36 1.34 1.23 1.04 0.91 0.85 0.88 0.90 0.89 0.81 0.74 0.69 0.81 0.83 0.83 0.81 0.80 0.74 0.68 0.67 0.67 0.69 0.76 0.82 0.88 0.93 0.99 1.07
1.04 1.08 1.15 1.28 1.29 1.24 1.21 1.19 1.21 1.28 1.31 1.30 1.20 1.06 0.91 0.83 0.83 0.78 0.79 0.81 0.81 0.73 0.75 0.76 0.75 0.74 0.76 0.76 0.73 0.67 0.67 0.71 0.76 0.82 0.90 0.97 1.00 1.05
1.07 1.06 1.09 1.21 1.20 1.18 1.13 1.09 1.12 1.20 1.25 1.20 1.08 0.92 0.76 0.65 0.66 0.74 0.81 0.90 0.92 0.73 0.72 0.77 0.74 0.77 0.75 0.73 0.78 0.73 0.71 0.76 0.79 0.83 0.86 0.90 0.93 0.98
1.03 1.02 0.97 0.93 0.97 0.86 0.91 1.00 1.01 1.02 0.99 0.95 0.93 0.79 0.69 0.63 0.72 0.85 0.87 0.86 0.76 0.63 0.71 0.86 0.81 0.78 0.71 0.73 0.81 0.75 0.75 0.78 0.80 0.80 0.81 0.84 0.88 0.91
0.87 0.86 0.81 0.76 0.74 0.75 0.77 0.83 0.76 0.71 0.72 0.69 0.68 0.65 0.65 0.68 0.78 0.89 0.95 0.99 0.89 0.79 0.79 0.89 0.80 0.75 0.67 0.67 0.77 0.74 0.75 0.78 0.82 0.84 0.84 0.84 0.85 0.90
0.70 0.68 0.68 0.64 0.73 0.82 0.76 0.71 0.65 0.62 0.67 0.71 0.74 0.75 0.82 0.88 0.91 0.99 1.08 1.18 1.09 0.84 0.72 0.73 0.68 0.65 0.64 0.66 0.70 0.76 0.75 0.75 0.79 0.84 0.87 0.90 0.88 0.89
0.51 0.51 0.59 0.60 0.71 0.80 0.71 0.69 0.65 0.54 0.53 0.59 0.62 0.64 0.63 0.70 0.84 0.84 0.92 1.18 1.09 0.85 0.55 0.60 0.64 0.73 0.91 0.69 0.61 0.65 0.71 0.76 0.75 0.75 0.78 0.84 0.93 0.95
0.48 0.47 0.48 0.60 0.66 0.71 0.72 0.64 0.63 0.64 0.59 0.58 0.60 0.60 0.60 0.62 0.66 0.67 0.73 1.01 1.22 0.95 0.51 0.74 0.96 0.84 1.02 0.79 0.57 0.57 0.60 0.67 0.73 0.74 0.75 0.77 0.85 1.01
0.48 0.45 0.48 0.63 0.69 0.69 0.66 0.65 0.72 0.76 0.67 0.67 0.68 0.65 0.60 0.57 0.55 0.58 0.63 0.68 0.79 0.81 0.62 0.89 1.32 1.10 1.21 1.01 0.64 0.54 0.57 0.61 0.67 0.72 0.74 0.86 0.92 0.98
0.50 0.54 0.57 0.63 0.66 0.63 0.63 0.67 0.68 0.64 0.63 0.66 0.63 0.57 0.53 0.54 0.60 0.66 0.70 0.71 0.72 0.69 0.67 0.72 0.97 1.08 1.34 1.32 0.88 0.58 0.59 0.63 0.64 0.71 0.79 0.85 0.91 1.00
0.58 0.59 0.61 0.61 0.60 0.59 0.59 0.60 0.58 0.57 0.62 0.64 0.60 0.58 0.62 0.68 0.72 0.73 0.80 0.80 0.86 0.76 0.67 0.63 0.71 1.03 1.30 1.06 1.02 0.84 0.67 0.73 0.69 0.76 0.84 0.82 0.80 0.87
0.69 0.67 0.62 0.57 0.55 0.54 0.53 0.52 0.54 0.57 0.62 0.61 0.66 0.70 0.71 0.72 0.71 0.70 0.79 0.87 0.89 0.73 0.65 0.63 0.67 0.78 0.94 1.02 1.04 0.79 0.68 0.74 0.78 0.89 1.00 0.99 0.83 0.81
0.81 0.71 0.59 0.52 0.50 0.50 0.52 0.53 0.54 0.56 0.58 0.64 0.70 0.74 0.77 0.78 0.75 0.72 0.77 0.87 0.86 0.70 0.64 0.64 0.76 0.95 0.95 0.83 0.74 0.74 0.76 0.79 0.79 0.85 1.00 1.19 0.98 0.80
0.73 0.60 0.51 0.49 0.49 0.50 0.54 0.57 0.56 0.55 0.61 0.70 0.76 0.79 0.84 0.85 0.85 0.84 0.82 0.86 0.83 0.73 0.66 0.68 0.87 1.29 1.39 0.90 0.55 0.56 0.80 0.90 0.89 0.95 1.01 1.19 1.22 0.93
0.53 0.48 0.48 0.49 0.52 0.57 0.59 0.62 0.63 0.64 0.67 0.71 0.74 0.80 0.89 0.96 0.94 0.86 0.83 0.87 0.89 0.82 0.75 0.68 0.76 1.13 1.59 1.32 0.94 0.57 0.58 0.85 1.18 1.28 1.08 0.96 0.96 0.89
0.45 0.44 0.48 0.54 0.60 0.63 0.66 0.69 0.74 0.75 0.74 0.79 0.81 0.82 0.89 1.03 0.99 0.86 0.86 0.86 0.93 0.94 0.86 0.67 0.58 0.75 1.18 1.58 1.33 0.72 0.59 0.67 0.97 1.41 1.47 1.41 1.15 0.90
0.54 0.54 0.54 0.58 0.65 0.70 0.73 0.76 0.80 0.79 0.81 0.86 0.87 0.87 0.90 1.03 1.04 0.95 0.94 0.98 0.93 0.86 0.82 0.72 0.71 0.86 1.17 1.52 1.18 0.71 0.61 0.64 0.71 0.79 1.09 1.65 2.16 1.95
0.63 0.64 0.64 0.66 0.71 0.77 0.80 0.81 0.81 0.78 0.79 0.87 0.88 0.89 0.93 0.98 0.93 0.96 0.98 1.01 1.05 1.00 0.96 0.93 0.87 0.89 0.95 1.01 1.04 0.83 0.67 0.63 0.66 0.71 0.77 0.84 1.06 1.30

GEFSNE_prec_meanprecacc_246.txt.gz
Total_Precipitation_Accumulation
1.63 1.54 1.44 1.32 1.30 1.32 1.34 1.43 1.59 1.53 1.25 0.96 0.89 0.93 1.00 1.05 1.17 1.12 1.06 1.27 1.30 1.29 1.33 1.37 1.37 1.30 1.29 1.36 1.41 1.48 1.55 1.62 1.69 1.76 1.78 1.74 1.76 1.87
1.53 1.53 1.47 1.35 1.30 1.32 1.37 1.42 1.51 1.59 1.44 1.06 0.92 0.94 1.07 1.16 1.33 1.22 1.13 1.34 1.32 1.29 1.30 1.27 1.22 1.17 1.14 1.16 1.24 1.32 1.33 1.35 1.44 1.57 1.72 1.79 1.85 1.96
1.45 1.47 1.47 1.43 1.42 1.40 1.44 1.49 1.56 1.64 1.62 1.29 1.08 1.04 1.11 1.14 1.17 1.13 1.10 1.12 1.12 1.26 1.19 1.12 1.08 1.04 1.02 0.99 1.02 1.10 1.18 1.22 1.27 1.36 1.50 1.64 1.69 1.72
1.37 1.42 1.45 1.45 1.49 1.50 1.53 1.54 1.55 1.54 1.55 1.44 1.19 1.06 1.03 1.02 1.02 1.02 0.99 0.96 0.93 1.09 1.09 1.03 0.98 0.98 0.98 0.94 0.92 0.93 1.01 1.11 1.16 1.18 1.22 1.29 1.36 1.43
1.20 1.26 1.28 1.34 1.40 1.42 1.47 1.50 1.47 1.44 1.43 1.35 1.15 0.97 0.92 0.92 0.99 0.99 0.95 0.89 0.82 0.90 0.95 0.94 0.90 0.90 0.93 0.90 0.88 0.86 0.83 0.85 0.89 0.94 1.00 1.08 1.16 1.23
1.07 1.13 1.17 1.21 1.25 1.30 1.38 1.41 1.40 1.39 1.39 1.37 1.26 1.07 0.93 0.86 0.90 0.93 0.92 0.86 0.80 0.75 0.87 0.89 0.89 0.87 0.85 0.78 0.72 0.71 0.70 0.72 0.79 0.86 0.94 0.99 1.04 1.11
1.07 1.12 1.19 1.33 1.35 1.29 1.27 1.25 1.25 1.31 1.34 1.33 1.23 1.08 0.94 0.86 0.85 0.79 0.81 0.84 0.85 0.79 0.80 0.81 0.80 0.79 0.80 0.81 0.78 0.72 0.71 0.75 0.79 0.85 0.94 1.01 1.05 1.10
1.10 1.09 1.12 1.25 1.24 1.23 1.20 1.16 1.17 1.24 1.28 1.23 1.10 0.95 0.78 0.68 0.69 0.76 0.82 0.92 0.95 0.77 0.77 0.82 0.78 0.82 0.79 0.77 0.82 0.78 0.75 0.80 0.83 0.85 0.89 0.93 0.96 1.02
1.06 1.05 1.00 0.96 1.01 0.90 0.97 1.05 1.06 1.06 1.03 0.98 0.96 0.82 0.71 0.65 0.74 0.88 0.89 0.88 0.79 0.65 0.74 0.90 0.86 0.83 0.75 0.77 0.85 0.79 0.78 0.81 0.83 0.82 0.83 0.86 0.90 0.94
0.91 0.88 0.84 0.79 0.78 0.80 0.82 0.88 0.80 0.75 0.75 0.71 0.70 0.67 0.67 0.70 0.80 0.92 0.97 1.02 0.91 0.82 0.82 0.93 0.83 0.78 0.71 0.71 0.80 0.76 0.76 0.80 0.83 0.85 0.85 0.85 0.87 0.92
0.75 0.72 0.72 0.68 0.78 0.87 0.81 0.76 0.70 0.67 0.71 0.74 0.77 0.78 0.85 0.91 0.94 1.02 1.11 1.22 1.12 0.86 0.74 0.75 0.70 0.67 0.66 0.68 0.72 0.78 0.76 0.76 0.79 0.84 0.88 0.91 0.89 0.90
0.59 0.57 0.64 0.65 0.77 0.85 0.77 0.74 0.70 0.59 0.58 0.63 0.66 0.67 0.67 0.73 0.87 0.86 0.94 1.21 1.12 0.87 0.57 0.61 0.66 0.74 0.93 0.70 0.62 0.66 0.72 0.77 0.75 0.75 0.78 0.85 0.94 0.97
0.56 0.55 0.56 0.67 0.73 0.77 0.78 0.70 0.69 0.69 0.64 0.63 0.64 0.64 0.63 0.65 0.69 0.69 0.75 1.03 1.24 0.97 0.52 0.75 0.97 0.85 1.03 0.80 0.58 0.57 0.60 0.68 0.73 0.75 0.75 0.78 0.86 1.02
0.54 0.53 0.58 0.72 0.77 0.77 0.73 0.72 0.79 0.82 0.72 0.72 0.71 0.68 0.63 0.59 0.57 0.59 0.65 0.71 0.81 0.83 0.63 0.91 1.34 1.11 1.23 1.03 0.65 0.54 0.58 0.61 0.67 0.72 0.74 0.86 0.93 0.99
0.54 0.58 0.64 0.70 0.72 0.70 0.71 0.74 0.74 0.69 0.69 0.71 0.68 0.60 0.56 0.56 0.62 0.68 0.72 0.73 0.73 0.70 0.69 0.73 0.99 1.09 1.36 1.34 0.89 0.59 0.60 0.64 0.64 0.72 0.79 0.85 0.91 1.00
0.61 0.63 0.65 0.66 0.64 0.63 0.64 0.65 0.63 0.62 0.67 0.68 0.64 0.62 0.66 0.72 0.74 0.76 0.83 0.83 0.88 0.78 0.68 0.65 0.73 1.05 1.32 1.08 1.04 0.86 0.68 0.74 0.69 0.76 0.84 0.83 0.80 0.88
0.72 0.70 0.65 0.60 0.59 0.58 0.56 0.56 0.58 0.61 0.66 0.65 0.70 0.74 0.75 0.75 0.74 0.73 0.82 0.89 0.92 0.75 0.66 0.65 0.69 0.80 0.96 1.03 1.06 0.81 0.70 0.74 0.78 0.89 1.01 0.99 0.83 0.82
0.84 0.74 0.61 0.55 0.53 0.53 0.54 0.56 0.57 0.60 0.62 0.67 0.74 0.77 0.81 0.81 0.79 0.75 0.80 0.89 0.88 0.72 0.66 0.65 0.77 0.97 0.97 0.85 0.76 0.76 0.78 0.81 0.81 0.86 1.00 1.20 0.99 0.81
0.75 0.62 0.53 0.51 0.51 0.52 0.55 0.59 0.58 0.57 0.63 0.72 0.78 0.81 0.86 0.88 0.88 0.86 0.85 0.89 0.85 0.74 0.68 0.69 0.88 1.31 1.41 0.91 0.56 0.58 0.82 0.92 0.91 0.97 1.03 1.20 1.23 0.95
0.55 0.50 0.50 0.51 0.54 0.58 0.61 0.64 0.64 0.65 0.69 0.72 0.76 0.82 0.91 0.98 0.96 0.88 0.85 0.89 0.91 0.84 0.77 0.70 0.77 1.15 1.61 1.33 0.96 0.58 0.59 0.88 1.20 1.31 1.10 0.99 0.98 0.91
0.48 0.46 0.50 0.56 0.61 0.65 0.67 0.71 0.75 0.77 0.75 0.80 0.82 0.83 0.91 1.05 1.01 0.87 0.87 0.87 0.95 0.95 0.87 0.68 0.59 0.76 1.19 1.60 1.35 0.73 0.60 0.68 0.99 1.44 1.50 1.44 1.17 0.92
0.56 0.56 0.56 0.60 0.66 0.71 0.74 0.78 0.81 0.80 0.82 0.87 0.88 0.88 0.92 1.04 1.06 0.96 0.96 1.00 0.94 0.87 0.83 0.73 0.72 0.88 1.20 1.54 1.20 0.72 0.62 0.65 0.72 0.81 1.12 1.68 2.20 1.99
0.66 0.67 0.66 0.68 0.73 0.78 0.82 0.83 0.82 0.79 0.80 0.88 0.89 0.90 0.94 1.00 0.95 0.98 0.99 1.02 1.07 1.01 0.98 0.94 0.88 0.91 0.97 1.04 1.06 0.85 0.68 0.64 0.67 0.72 0.79 0.86 1.08 1.32

GEFSNE_prec_meanprecacc_252.txt.gz
Total_Precipitation_Accumulation
1.69 1.60 1.50 1.39 1.38 1.39 1.40 1.48 1.65 1.60 1.33 1.04 0.97 1.02 1.09 1.13 1.24 1.18 1.10 1.31 1.33 1.32 1.36 1.40 1.41 1.33 1.33 1.40 1.46 1.52 1.59 1.66 1.73 1.80 1.84 1.81 1.83 1.95
1.56 1.57 1.52 1.40 1.36 1.38 1.43 1.48 1.56 1.64 1.49 1.10 0.97 0.99 1.13 1.23 1.39 1.27 1.17 1.38 1.35 1.32 1.32 1.29 1.25 1.20 1.16 1.18 1.26 1.34 1.36 1.37 1.46 1.59 1.74 1.82 1.89 2.02
1.47 1.50 1.51 1.47 1.46 1.45 1.50 1.55 1.61 1.68 1.67 1.33 1.11 1.07 1.14 1.18 1.21 1.17 1.13 1.15 1.15 1.30 1.23 1.15 1.11 1.08 1.05 1.01 1.04 1.12 1.20 1.24 1.29 1.39 1.52 1.66 1.71 1.75
1.40 1.45 1.48 1.49 1.52 1.53 1.57 1.58 1.59 1.58 1.59 1.47 1.24 1.10 1.06 1.04 1.04 1.04 1.03 0.99 0.95 1.12 1.12 1.06 1.02 1.03 1.02 0.98 0.95 0.96 1.03 1.13 1.17 1.20 1.24 1.31 1.38 1.45
1.23 1.29 1.31 1.37 1.43 1.45 1.49 1.53 1.50 1.48 1.47 1.39 1.19 1.02 0.95 0.94 1.01 1.01 0.97 0.93 0.86 0.93 0.98 0.97 0.94 0.95 0.99 0.94 0.91 0.89 0.85 0.87 0.91 0.95 1.01 1.09 1.18 1.24
1.11 1.17 1.21 1.25 1.28 1.32 1.41 1.43 1.42 1.43 1.44 1.42 1.30 1.11 0.96 0.89 0.92 0.95 0.95 0.89 0.83 0.78 0.91 0.93 0.93 0.92 0.91 0.85 0.77 0.74 0.73 0.74 0.81 0.88 0.96 1.01 1.05 1.12
1.12 1.16 1.22 1.37 1.38 1.32 1.30 1.27 1.27 1.34 1.38 1.37 1.27 1.12 0.97 0.88 0.87 0.82 0.84 0.87 0.89 0.82 0.84 0.85 0.84 0.84 0.86 0.88 0.85 0.78 0.76 0.79 0.83 0.88 0.96 1.04 1.07 1.12
1.14 1.13 1.17 1.30 1.29 1.27 1.23 1.19 1.20 1.27 1.32 1.27 1.14 0.97 0.80 0.69 0.70 0.78 0.85 0.95 0.99 0.81 0.81 0.86 0.83 0.86 0.84 0.82 0.89 0.85 0.82 0.85 0.87 0.89 0.92 0.95 0.98 1.03
1.11 1.09 1.05 1.02 1.06 0.94 1.01 1.09 1.10 1.11 1.07 1.01 0.99 0.84 0.73 0.67 0.76 0.90 0.92 0.90 0.81 0.68 0.78 0.94 0.90 0.89 0.80 0.83 0.90 0.84 0.84 0.86 0.87 0.85 0.86 0.89 0.93 0.96
0.96 0.94 0.90 0.84 0.82 0.84 0.85 0.91 0.83 0.79 0.79 0.75 0.73 0.69 0.68 0.72 0.82 0.93 1.00 1.05 0.95 0.85 0.85 0.97 0.87 0.82 0.75 0.76 0.86 0.81 0.80 0.83 0.86 0.88 0.89 0.89 0.91 0.95
0.81 0.78 0.78 0.74 0.83 0.92 0.85 0.80 0.73 0.71 0.76 0.79 0.81 0.82 0.88 0.94 0.97 1.05 1.15 1.26 1.17 0.91 0.78 0.79 0.74 0.70 0.70 0.72 0.77 0.84 0.81 0.80 0.83 0.88 0.91 0.94 0.92 0.93
0.66 0.64 0.70 0.71 0.82 0.90 0.81 0.78 0.74 0.63 0.61 0.67 0.71 0.72 0.71 0.76 0.90 0.89 0.97 1.24 1.16 0.91 0.61 0.64 0.69 0.78 0.97 0.74 0.66 0.70 0.76 0.82 0.79 0.78 0.81 0.87 0.96 0.99
0.64 0.62 0.62 0.73 0.78 0.82 0.84 0.75 0.74 0.73 0.68 0.67 0.69 0.69 0.69 0.70 0.73 0.73 0.78 1.06 1.27 0.99 0.55 0.78 1.01 0.89 1.07 0.83 0.61 0.60 0.63 0.70 0.76 0.77 0.78 0.80 0.88 1.04
0.61 0.60 0.65 0.79 0.83 0.84 0.80 0.77 0.85 0.88 0.78 0.78 0.78 0.74 0.69 0.65 0.62 0.63 0.68 0.73 0.83 0.85 0.65 0.93 1.37 1.14 1.26 1.06 0.67 0.57 0.60 0.63 0.69 0.74 0.75 0.87 0.94 1.00
0.60 0.65 0.71 0.78 0.80 0.78 0.80 0.81 0.79 0.75 0.75 0.79 0.74 0.66 0.61 0.61 0.66 0.73 0.76 0.77 0.77 0.73 0.71 0.75 1.01 1.12 1.39 1.37 0.92 0.61 0.62 0.66 0.66 0.73 0.80 0.86 0.92 1.01
0.68 0.69 0.71 0.72 0.72 0.71 0.73 0.74 0.70 0.69 0.74 0.76 0.71 0.69 0.72 0.77 0.80 0.81 0.87 0.88 0.93 0.83 0.72 0.68 0.76 1.09 1.36 1.11 1.07 0.89 0.70 0.76 0.71 0.77 0.85 0.83 0.81 0.88
0.78 0.76 0.70 0.66 0.65 0.65 0.63 0.64 0.66 0.68 0.72 0.71 0.77 0.81 0.82 0.82 0.81 0.80 0.88 0.94 0.97 0.79 0.70 0.68 0.72 0.83 1.00 1.07 1.09 0.84 0.72 0.77 0.81 0.91 1.02 1.00 0.84 0.83
0.90 0.81 0.68 0.61 0.59 0.58 0.60 0.62 0.64 0.67 0.68 0.73 0.80 0.83 0.87 0.87 0.85 0.82 0.87 0.96 0.94 0.77 0.69 0.68 0.80 1.00 1.00 0.87 0.79 0.78 0.79 0.83 0.82 0.88 1.02 1.21 1.00 0.81
0.81 0.68 0.60 0.57 0.57 0.57 0.60 0.63 0.63 0.62 0.69 0.79 0.85 0.88 0.92 0.93 0.93 0.92 0.90 0.95 0.91 0.80 0.73 0.73 0.92 1.34 1.44 0.93 0.58 0.59 0.84 0.93 0.92 0.98 1.04 1.21 1.24 0.95
0.61 0.55 0.55 0.56 0.59 0.63 0.66 0.68 0.68 0.69 0.73 0.77 0.81 0.87 0.96 1.04 1.01 0.93 0.90 0.94 0.96 0.89 0.81 0.74 0.81 1.18 1.64 1.35 0.97 0.59 0.61 0.89 1.21 1.32 1.11 1.00 0.99 0.91
0.54 0.52 0.55 0.60 0.65 0.68 0.71 0.75 0.79 0.80 0.78 0.84 0.86 0.87 0.94 1.09 1.05 0.91 0.91 0.91 0.99 1.00 0.91 0.72 0.62 0.78 1.21 1.62 1.37 0.74 0.61 0.69 1.00 1.45 1.51 1.45 1.18 0.93
0.62 0.62 0.61 0.64 0.70 0.74 0.77 0.81 0.84 0.83 0.85 0.90 0.91 0.91 0.94 1.06 1.08 0.99 0.98 1.03 0.97 0.90 0.86 0.76 0.75 0.90 1.22 1.56 1.21 0.73 0.63 0.66 0.73 0.82 1.13 1.69 2.22 2.00
0.70 0.71 0.71 0.73 0.77 0.81 0.84 0.85 0.84 0.81 0.83 0.90 0.92 0.92 0.96 1.02 0.96 0.99 1.01 1.04 1.09 1.03 0.99 0.96 0.90 0.94 0.99 1.06 1.08 0.86 0.69 0.65 0.68 0.73 0.79 0.87 1.09 1.33

GEFSNE_prec_meanprecacc_258.txt.gz
Total_Precipitation_Accumulation
1.70 1.62 1.53 1.42 1.42 1.44 1.47 1.55 1.72 1.67 1.39 1.09 1.01 1.06 1.12 1.16 1.28 1.21 1.13 1.35 1.36 1.35 1.39 1.43 1.43 1.35 1.34 1.42 1.49 1.56 1.63 1.70 1.77 1.84 1.87 1.84 1.86 1.98
1.58 1.59 1.54 1.42 1.40 1.43 1.49 1.55 1.64 1.70 1.55 1.14 1.00 1.02 1.16 1.26 1.43 1.31 1.21 1.42 1.40 1.36 1.36 1.33 1.29 1.23 1.19 1.21 1.29 1.38 1.40 1.41 1.50 1.63 1.78 1.86 1.92 2.04
1.49 1.52 1.53 1.49 1.49 1.49 1.55 1.61 1.68 1.75 1.73 1.36 1.13 1.09 1.18 1.22 1.26 1.21 1.17 1.19 1.19 1.33 1.26 1.19 1.15 1.12 1.08 1.04 1.06 1.14 1.22 1.27 1.33 1.42 1.56 1.69 1.74 1.78
1.42 1.47 1.50 1.51 1.55 1.56 1.61 1.64 1.64 1.64 1.64 1.51 1.27 1.13 1.09 1.07 1.08 1.08 1.06 1.03 0.99 1.16 1.16 1.10 1.05 1.06 1.05 1.01 0.97 0.98 1.06 1.15 1.20 1.23 1.27 1.33 1.41 1.48
1.26 1.32 1.34 1.40 1.46 1.48 1.54 1.58 1.55 1.53 1.51 1.43 1.22 1.05 0.99 0.99 1.05 1.06 1.02 0.97 0.90 0.98 1.02 1.02 0.98 0.99 1.02 0.97 0.94 0.91 0.88 0.89 0.93 0.98 1.04 1.12 1.20 1.27
1.15 1.21 1.25 1.29 1.31 1.35 1.45 1.49 1.47 1.47 1.48 1.46 1.34 1.14 1.00 0.94 0.97 1.01 1.00 0.94 0.87 0.82 0.96 0.97 0.98 0.97 0.96 0.88 0.80 0.77 0.75 0.77 0.83 0.90 0.97 1.03 1.08 1.15
1.14 1.19 1.26 1.41 1.43 1.36 1.34 1.32 1.32 1.38 1.42 1.42 1.31 1.16 1.01 0.93 0.92 0.86 0.88 0.92 0.93 0.86 0.88 0.89 0.88 0.88 0.91 0.93 0.90 0.81 0.79 0.82 0.86 0.91 0.99 1.06 1.10 1.14
1.17 1.15 1.19 1.32 1.32 1.31 1.27 1.25 1.27 1.33 1.37 1.32 1.18 1.01 0.84 0.72 0.73 0.81 0.88 0.99 1.04 0.85 0.84 0.90 0.86 0.89 0.87 0.86 0.94 0.90 0.86 0.89 0.91 0.93 0.95 0.98 1.01 1.06
1.14 1.12 1.07 1.04 1.10 0.98 1.04 1.14 1.17 1.18 1.12 1.05 1.02 0.87 0.76 0.69 0.78 0.92 0.94 0.93 0.84 0.71 0.81 0.99 0.94 0.93 0.84 0.86 0.94 0.88 0.89 0.91 0.91 0.89 0.89 0.91 0.95 0.98
1.00 0.97 0.93 0.87 0.86 0.88 0.90 0.96 0.90 0.87 0.87 0.80 0.76 0.72 0.71 0.75 0.85 0.97 1.03 1.08 0.98 0.88 0.89 1.02 0.92 0.87 0.80 0.81 0.91 0.86 0.85 0.89 0.91 0.92 0.92 0.92 0.93 0.97
0.85 0.83 0.82 0.78 0.88 0.97 0.90 0.85 0.79 0.79 0.84 0.86 0.87 0.86 0.92 0.98 1.02 1.10 1.21 1.33 1.23 0.96 0.82 0.83 0.78 0.74 0.74 0.77 0.81 0.88 0.85 0.85 0.88 0.92 0.95 0.97 0.95 0.95
0.70 0.69 0.76 0.76 0.89 0.97 0.87 0.84 0.79 0.68 0.67 0.75 0.78 0.79 0.77 0.82 0.96 0.95 1.04 1.31 1.21 0.96 0.64 0.67 0.72 0.81 1.01 0.78 0.70 0.74 0.80 0.86 0.84 0.84 0.86 0.91 1.00 1.02
0.70 0.69 0.70 0.80 0.86 0.91 0.91 0.81 0.79 0.78 0.72 0.73 0.76 0.77 0.76 0.76 0.79 0.78 0.84 1.12 1.32 1.03 0.57 0.80 1.03 0.90 1.09 0.86 0.64 0.63 0.66 0.74 0.82 0.84 0.85 0.86 0.93 1.07
0.69 0.69 0.74 0.87 0.91 0.93 0.88 0.86 0.92 0.95 0.84 0.84 0.84 0.81 0.77 0.72 0.69 0.69 0.74 0.78 0.87 0.88 0.67 0.94 1.39 1.15 1.28 1.08 0.70 0.60 0.63 0.66 0.73 0.79 0.81 0.94 1.00 1.05
0.69 0.75 0.80 0.86 0.88 0.88 0.89 0.89 0.88 0.83 0.82 0.86 0.82 0.72 0.67 0.67 0.72 0.79 0.83 0.83 0.82 0.77 0.74 0.78 1.03 1.14 1.40 1.40 0.95 0.64 0.66 0.71 0.70 0.77 0.86 0.92 0.98 1.06
0.76 0.78 0.81 0.81 0.80 0.80 0.84 0.85 0.81 0.80 0.83 0.84 0.78 0.75 0.77 0.83 0.85 0.85 0.92 0.93 0.99 0.88 0.76 0.71 0.79 1.12 1.39 1.13 1.09 0.92 0.74 0.80 0.75 0.82 0.90 0.88 0.86 0.93
0.85 0.83 0.79 0.75 0.75 0.76 0.75 0.75 0.77 0.79 0.82 0.80 0.85 0.89 0.89 0.88 0.87 0.85 0.92 0.99 1.02 0.84 0.74 0.73 0.76 0.88 1.05 1.12 1.14 0.88 0.76 0.81 0.84 0.95 1.06 1.04 0.89 0.87
0.97 0.89 0.75 0.68 0.66 0.67 0.70 0.72 0.74 0.76 0.77 0.82 0.88 0.91 0.94 0.94 0.91 0.88 0.92 1.01 0.99 0.82 0.73 0.72 0.84 1.05 1.06 0.94 0.85 0.82 0.83 0.86 0.86 0.92 1.06 1.25 1.04 0.84
0.87 0.73 0.66 0.63 0.62 0.63 0.67 0.70 0.71 0.70 0.76 0.86 0.92 0.95 0.98 1.00 0.99 0.98 0.96 1.00 0.97 0.86 0.78 0.78 0.96 1.39 1.49 0.98 0.63 0.63 0.87 0.95 0.95 1.02 1.08 1.26 1.28 0.98
0.65 0.60 0.60 0.61 0.64 0.68 0.71 0.74 0.74 0.76 0.80 0.84 0.88 0.94 1.02 1.10 1.07 0.99 0.95 0.99 1.01 0.94 0.87 0.80 0.87 1.23 1.68 1.39 1.00 0.63 0.64 0.91 1.24 1.35 1.14 1.04 1.03 0.94
0.59 0.58 0.61 0.66 0.70 0.73 0.76 0.81 0.85 0.87 0.84 0.89 0.92 0.93 1.00 1.14 1.10 0.97 0.96 0.96 1.03 1.04 0.96 0.77 0.67 0.83 1.26 1.67 1.41 0.78 0.65 0.73 1.03 1.47 1.53 1.48 1.21 0.95
0.67 0.67 0.67 0.70 0.75 0.79 0.82 0.86 0.91 0.89 0.91 0.95 0.96 0.97 1.00 1.12 1.14 1.04 1.03 1.07 1.01 0.95 0.91 0.80 0.79 0.95 1.27 1.61 1.26 0.76 0.66 0.69 0.77 0.85 1.15 1.72 2.24 2.02
0.75 0.77 0.76 0.78 0.81 0.86 0.89 0.90 0.90 0.86 0.87 0.95 0.96 0.97 1.01 1.07 1.02 1.05 1.06 1.09 1.13 1.07 1.03 1.00 0.94 0.98 1.03 1.10 1.12 0.90 0.72 0.68 0.70 0.75 0.82 0.88 1.10 1.35

GEFSNE_prec_meanprecacc_264.txt.gz
Total_Precipitation_Accumulation
1.71 1.63 1.54 1.44 1.45 1.47 1.50 1.59 1.77 1.72 1.42 1.11 1.04 1.09 1.16 1.20 1.33 1.27 1.19 1.39 1.40 1.37 1.42 1.47 1.47 1.39 1.37 1.45 1.52 1.58 1.66 1.73 1.80 1.87 1.91 1.88 1.91 2.03
1.59 1.60 1.55 1.44 1.41 1.45 1.51 1.58 1.68 1.74 1.58 1.16 1.02 1.05 1.21 1.31 1.48 1.36 1.26 1.49 1.46 1.41 1.40 1.36 1.32 1.26 1.22 1.23 1.32 1.41 1.42 1.43 1.52 1.66 1.81 1.90 1.97 2.09
1.50 1.53 1.54 1.50 1.50 1.51 1.56 1.63 1.71 1.79 1.77 1.38 1.15 1.11 1.20 1.26 1.30 1.26 1.22 1.24 1.25 1.39 1.31 1.23 1.18 1.15 1.11 1.07 1.09 1.17 1.25 1.29 1.35 1.44 1.58 1.72 1.78 1.81
1.43 1.49 1.51 1.52 1.57 1.58 1.63 1.65 1.66 1.66 1.67 1.53 1.29 1.15 1.11 1.10 1.12 1.13 1.11 1.08 1.04 1.20 1.21 1.14 1.10 1.10 1.09 1.04 1.00 1.00 1.08 1.18 1.22 1.25 1.29 1.36 1.43 1.50
1.29 1.35 1.36 1.42 1.48 1.50 1.56 1.60 1.57 1.55 1.54 1.45 1.25 1.07 1.02 1.01 1.09 1.10 1.06 1.02 0.94 1.02 1.07 1.06 1.03 1.04 1.07 1.02 0.97 0.94 0.90 0.91 0.95 1.00 1.06 1.15 1.23 1.29
1.18 1.24 1.27 1.31 1.34 1.38 1.47 1.51 1.49 1.50 1.51 1.49 1.37 1.18 1.04 0.98 1.02 1.05 1.04 0.98 0.91 0.86 1.00 1.02 1.02 1.02 1.01 0.94 0.85 0.80 0.78 0.79 0.85 0.92 1.00 1.05 1.11 1.18
1.17 1.21 1.28 1.44 1.46 1.40 1.39 1.36 1.36 1.43 1.46 1.46 1.35 1.21 1.06 0.98 0.98 0.91 0.92 0.96 0.98 0.90 0.92 0.93 0.92 0.92 0.96 0.99 0.96 0.87 0.83 0.85 0.88 0.93 1.01 1.08 1.12 1.18
1.20 1.18 1.21 1.35 1.34 1.34 1.31 1.29 1.31 1.37 1.41 1.36 1.22 1.06 0.89 0.77 0.77 0.86 0.93 1.04 1.09 0.90 0.89 0.95 0.91 0.96 0.93 0.91 1.00 0.97 0.91 0.93 0.94 0.95 0.97 1.00 1.04 1.09
1.18 1.16 1.10 1.07 1.12 0.99 1.07 1.17 1.21 1.22 1.16 1.09 1.07 0.90 0.80 0.73 0.82 0.96 0.99 0.98 0.88 0.75 0.86 1.04 1.00 0.98 0.90 0.92 1.00 0.94 0.95 0.96 0.95 0.92 0.91 0.93 0.98 1.01
1.03 1.00 0.96 0.89 0.88 0.91 0.92 0.99 0.93 0.91 0.90 0.83 0.80 0.75 0.73 0.78 0.88 1.00 1.07 1.12 1.02 0.93 0.94 1.08 0.97 0.92 0.84 0.85 0.96 0.91 0.91 0.95 0.97 0.96 0.95 0.94 0.95 0.99
0.88 0.86 0.85 0.81 0.91 1.01 0.93 0.88 0.83 0.83 0.89 0.91 0.92 0.91 0.97 1.03 1.08 1.17 1.27 1.40 1.29 1.02 0.88 0.88 0.83 0.79 0.79 0.81 0.85 0.92 0.90 0.92 0.97 1.01 1.02 1.01 0.98 0.97
0.75 0.73 0.80 0.80 0.93 1.01 0.91 0.88 0.83 0.72 0.73 0.81 0.85 0.86 0.84 0.89 1.04 1.04 1.11 1.38 1.28 1.02 0.69 0.71 0.76 0.85 1.07 0.84 0.75 0.78 0.86 0.92 0.92 0.93 0.96 1.00 1.07 1.07
0.76 0.76 0.76 0.86 0.92 0.97 0.97 0.86 0.83 0.82 0.77 0.79 0.84 0.83 0.82 0.83 0.86 0.87 0.92 1.18 1.38 1.08 0.61 0.84 1.07 0.94 1.13 0.91 0.69 0.68 0.71 0.79 0.88 0.91 0.94 0.95 1.02 1.15
0.78 0.77 0.82 0.95 0.99 1.01 0.95 0.92 0.98 1.01 0.90 0.91 0.93 0.89 0.83 0.79 0.75 0.77 0.81 0.85 0.93 0.93 0.71 0.98 1.43 1.20 1.32 1.12 0.74 0.64 0.67 0.70 0.76 0.83 0.87 1.03 1.10 1.15
0.77 0.84 0.91 0.96 0.98 0.98 0.99 0.99 0.96 0.90 0.91 0.96 0.92 0.81 0.73 0.72 0.77 0.85 0.90 0.91 0.89 0.84 0.79 0.82 1.08 1.18 1.45 1.44 0.98 0.67 0.69 0.75 0.74 0.81 0.90 0.97 1.06 1.17
0.82 0.86 0.90 0.90 0.90 0.90 0.94 0.95 0.91 0.89 0.93 0.94 0.88 0.84 0.85 0.89 0.91 0.92 1.00 1.01 1.07 0.96 0.83 0.78 0.85 1.17 1.44 1.18 1.14 0.96 0.77 0.84 0.79 0.85 0.93 0.93 0.92 1.01
0.93 0.90 0.86 0.82 0.82 0.84 0.83 0.84 0.88 0.92 0.95 0.91 0.94 0.97 0.96 0.95 0.94 0.92 0.99 1.05 1.08 0.90 0.80 0.79 0.83 0.94 1.11 1.17 1.19 0.93 0.81 0.85 0.88 0.98 1.10 1.10 0.95 0.94
1.03 0.95 0.82 0.75 0.74 0.75 0.78 0.82 0.85 0.88 0.89 0.92 0.97 0.99 1.02 1.01 0.98 0.95 0.98 1.06 1.04 0.87 0.78 0.76 0.90 1.12 1.14 1.03 0.92 0.88 0.89 0.92 0.91 0.96 1.10 1.30 1.10 0.91
0.93 0.80 0.73 0.71 0.71 0.72 0.75 0.78 0.80 0.80 0.86 0.96 1.01 1.03 1.06 1.07 1.07 1.05 1.03 1.06 1.02 0.91 0.83 0.82 1.01 1.44 1.56 1.05 0.69 0.68 0.92 1.01 1.00 1.07 1.14 1.30 1.32 1.03
0.72 0.67 0.67 0.69 0.73 0.79 0.82 0.83 0.83 0.84 0.88 0.93 0.97 1.02 1.09 1.17 1.14 1.06 1.03 1.06 1.07 1.00 0.92 0.85 0.92 1.28 1.73 1.43 1.04 0.66 0.68 0.96 1.29 1.40 1.20 1.09 1.08 1.00
0.67 0.66 0.70 0.76 0.80 0.84 0.87 0.91 0.94 0.94 0.91 0.96 0.99 1.00 1.07 1.21 1.17 1.03 1.03 1.03 1.10 1.10 1.02 0.82 0.73 0.89 1.32 1.74 1.48 0.84 0.71 0.79 1.09 1.53 1.59 1.54 1.28 1.01
0.76 0.76 0.76 0.79 0.85 0.88 0.91 0.94 0.97 0.96 0.97 1.01 1.02 1.03 1.06 1.18 1.20 1.10 1.09 1.13 1.07 1.00 0.96 0.85 0.85 1.01 1.35 1.70 1.35 0.84 0.72 0.76 0.84 0.93 1.23 1.79 2.30 2.07
0.83 0.85 0.84 0.85 0.89 0.94 0.96 0.97 0.95 0.92 0.93 1.00 1.02 1.02 1.06 1.13 1.08 1.11 1.12 1.15 1.18 1.12 1.08 1.05 1.00 1.04 1.10 1.17 1.20 0.97 0.79 0.74 0.76 0.82 0.89 0.96 1.16 1.39

GEFSNE_prec_meanprecacc_270.txt.gz
Total_Precipitation_Accumulation
1.73 1.65 1.56 1.46 1.47 1.50 1.52 1.62 1.81 1.77 1.46 1.15 1.07 1.11 1.17 1.22 1.36 1.31 1.23 1.46 1.47 1.44 1.47 1.52 1.54 1.45 1.42 1.50 1.57 1.63 1.71 1.79 1.86 1.92 1.95 1.91 1.93 2.06
1.62 1.63 1.57 1.45 1.43 1.48 1.54 1.60 1.70 1.77 1.60 1.18 1.04 1.08 1.23 1.34 1.51 1.39 1.30 1.54 1.52 1.47 1.45 1.41 1.36 1.32 1.26 1.28 1.38 1.45 1.46 1.48 1.57 1.70 1.86 1.94 2.00 2.12
1.53 1.56 1.56 1.52 1.52 1.53 1.59 1.66 1.74 1.82 1.79 1.40 1.16 1.13 1.23 1.29 1.33 1.29 1.26 1.28 1.29 1.45 1.38 1.28 1.22 1.19 1.16 1.11 1.14 1.22 1.29 1.33 1.38 1.48 1.63 1.77 1.82 1.85
1.47 1.52 1.54 1.54 1.58 1.60 1.65 1.68 1.69 1.69 1.69 1.55 1.30 1.16 1.13 1.12 1.14 1.16 1.15 1.12 1.09 1.26 1.26 1.21 1.15 1.14 1.13 1.09 1.05 1.06 1.13 1.22 1.25 1.28 1.33 1.40 1.48 1.54
1.35 1.40 1.40 1.45 1.51 1.52 1.58 1.63 1.60 1.58 1.56 1.48 1.27 1.09 1.03 1.04 1.11 1.13 1.09 1.06 0.99 1.07 1.12 1.12 1.10 1.09 1.12 1.07 1.03 0.99 0.95 0.96 0.99 1.03 1.09 1.17 1.26 1.32
1.21 1.28 1.32 1.36 1.38 1.42 1.50 1.53 1.52 1.53 1.54 1.51 1.40 1.20 1.06 1.00 1.05 1.08 1.08 1.02 0.95 0.90 1.06 1.07 1.08 1.09 1.08 0.99 0.91 0.86 0.83 0.84 0.89 0.96 1.04 1.09 1.13 1.19
1.19 1.24 1.31 1.48 1.51 1.46 1.44 1.41 1.41 1.47 1.50 1.49 1.38 1.23 1.09 1.01 1.02 0.96 0.96 1.00 1.02 0.94 0.97 0.99 0.98 0.98 1.03 1.06 1.02 0.92 0.89 0.90 0.92 0.96 1.04 1.12 1.16 1.20
1.23 1.21 1.24 1.38 1.37 1.38 1.37 1.34 1.36 1.43 1.47 1.41 1.26 1.08 0.91 0.79 0.80 0.90 0.98 1.09 1.14 0.95 0.94 1.00 0.97 1.02 0.99 0.97 1.08 1.03 0.97 1.00 0.99 0.99 1.01 1.04 1.07 1.12
1.21 1.19 1.14 1.10 1.15 1.02 1.10 1.22 1.26 1.26 1.20 1.14 1.11 0.93 0.81 0.75 0.84 1.00 1.03 1.02 0.92 0.79 0.91 1.11 1.06 1.06 0.96 0.99 1.08 1.01 1.01 1.02 1.02 0.99 0.96 0.97 1.01 1.04
1.05 1.03 0.99 0.93 0.92 0.95 0.96 1.03 0.97 0.95 0.94 0.86 0.83 0.77 0.76 0.81 0.92 1.04 1.13 1.19 1.08 0.96 0.98 1.14 1.04 0.98 0.90 0.92 1.04 0.98 0.98 1.03 1.04 1.04 1.02 1.00 0.99 1.03
0.90 0.88 0.88 0.84 0.95 1.05 0.98 0.93 0.87 0.87 0.93 0.94 0.94 0.94 1.00 1.08 1.14 1.24 1.37 1.51 1.38 1.08 0.91 0.92 0.88 0.85 0.85 0.87 0.92 0.99 0.97 0.99 1.05 1.09 1.10 1.08 1.04 1.03
0.77 0.76 0.84 0.84 0.97 1.06 0.97 0.93 0.88 0.76 0.77 0.85 0.89 0.90 0.88 0.95 1.12 1.12 1.20 1.48 1.36 1.08 0.73 0.74 0.79 0.89 1.12 0.89 0.80 0.84 0.92 0.99 0.99 1.01 1.04 1.09 1.14 1.13
0.79 0.79 0.80 0.90 0.96 1.02 1.03 0.92 0.88 0.86 0.81 0.84 0.88 0.88 0.89 0.91 0.95 0.97 1.02 1.28 1.46 1.15 0.65 0.87 1.10 0.97 1.18 0.96 0.75 0.73 0.76 0.85 0.94 0.98 1.02 1.04 1.10 1.24
0.83 0.81 0.87 1.00 1.06 1.08 1.04 0.99 1.04 1.06 0.95 0.96 0.99 0.96 0.91 0.88 0.84 0.85 0.92 0.95 1.02 1.00 0.76 1.02 1.47 1.23 1.36 1.16 0.79 0.69 0.72 0.76 0.82 0.90 0.94 1.11 1.19 1.23
0.82 0.89 0.96 1.02 1.05 1.05 1.08 1.07 1.03 0.96 0.96 1.01 0.98 0.88 0.80 0.80 0.86 0.94 1.01 1.01 0.99 0.93 0.86 0.89 1.15 1.25 1.51 1.50 1.03 0.71 0.74 0.80 0.79 0.87 0.96 1.04 1.13 1.25
0.87 0.91 0.95 0.95 0.95 0.96 1.02 1.04 0.99 0.97 1.00 1.00 0.95 0.91 0.92 0.97 1.01 1.01 1.10 1.13 1.20 1.09 0.94 0.86 0.93 1.26 1.53 1.26 1.20 1.01 0.82 0.88 0.84 0.91 1.00 0.99 0.97 1.06
0.99 0.96 0.90 0.86 0.87 0.90 0.89 0.91 0.96 1.00 1.03 0.98 1.00 1.05 1.05 1.04 1.04 1.00 1.07 1.15 1.20 1.02 0.91 0.88 0.92 1.03 1.19 1.24 1.26 0.99 0.86 0.90 0.93 1.03 1.16 1.17 1.01 1.00
1.09 1.01 0.87 0.81 0.80 0.81 0.84 0.88 0.91 0.95 0.96 1.00 1.05 1.07 1.11 1.11 1.08 1.04 1.07 1.16 1.14 0.96 0.85 0.83 0.96 1.19 1.22 1.10 0.98 0.93 0.93 0.96 0.96 1.02 1.16 1.36 1.16 0.97
0.96 0.84 0.77 0.76 0.77 0.79 0.82 0.85 0.86 0.86 0.94 1.04 1.09 1.11 1.14 1.16 1.15 1.14 1.12 1.15 1.11 0.99 0.90 0.88 1.06 1.49 1.61 1.10 0.73 0.72 0.95 1.04 1.05 1.15 1.21 1.37 1.39 1.09
0.76 0.71 0.71 0.73 0.79 0.85 0.89 0.91 0.91 0.91 0.95 1.01 1.05 1.10 1.17 1.25 1.23 1.14 1.11 1.14 1.15 1.07 0.99 0.92 0.98 1.33 1.77 1.46 1.07 0.70 0.71 0.99 1.33 1.46 1.27 1.16 1.15 1.06
0.70 0.70 0.74 0.80 0.85 0.90 0.94 0.99 1.03 1.03 1.00 1.05 1.08 1.09 1.15 1.29 1.25 1.11 1.11 1.10 1.17 1.18 1.08 0.88 0.78 0.94 1.37 1.80 1.54 0.89 0.75 0.83 1.14 1.59 1.66 1.62 1.36 1.09
0.80 0.81 0.81 0.85 0.91 0.95 0.99 1.02 1.05 1.04 1.05 1.09 1.10 1.11 1.14 1.26 1.28 1.18 1.17 1.21 1.14 1.07 1.02 0.91 0.91 1.09 1.42 1.77 1.41 0.89 0.78 0.81 0.91 1.00 1.31 1.87 2.38 2.13
0.88 0.91 0.91 0.92 0.96 1.01 1.05 1.05 1.03 0.99 1.00 1.07 1.09 1.10 1.14 1.20 1.16 1.18 1.19 1.22 1.25 1.19 1.14 1.11 1.05 1.10 1.17 1.23 1.26 1.03 0.85 0.80 0.82 0.89 0.97 1.04 1.24 1.45